GEFSCGP_prec_meanprecacc_216.txt.gz
Total_Precipitation_Accumulation
0.58 0.74 0.84 0.79 0.80 0.85 0.76 0.71 0.67 0.53 0.44 0.46 0.44 0.42 0.44 0.41 0.37 0.39 0.41 0.40 0.43 0.37 0.32 0.24 0.21 0.21 0.29 0.32 0.32 0.35 0.40 0.41 0.38 0.33 0.38 0.42 0.42 0.51 0.60 0.67 0.73 0.78 0.81 0.87
0.58 0.60 0.54 0.56 0.63 0.75 0.76 0.76 0.72 0.63 0.47 0.44 0.44 0.45 0.42 0.39 0.36 0.31 0.29 0.27 0.33 0.31 0.29 0.24 0.21 0.19 0.18 0.20 0.24 0.31 0.32 0.31 0.28 0.25 0.30 0.38 0.44 0.52 0.66 0.81 0.92 0.96 0.94 0.99
0.55 0.50 0.43 0.46 0.54 0.67 0.68 0.64 0.58 0.65 0.58 0.52 0.56 0.59 0.48 0.42 0.39 0.31 0.25 0.26 0.29 0.28 0.24 0.23 0.22 0.21 0.17 0.18 0.21 0.25 0.27 0.29 0.27 0.32 0.50 0.76 1.01 1.10 1.13 1.15 1.28 1.37 1.32 1.29
0.69 0.47 0.39 0.42 0.47 0.53 0.72 0.52 0.44 0.55 0.69 0.66 0.55 0.63 0.43 0.41 0.46 0.36 0.28 0.26 0.28 0.29 0.26 0.22 0.20 0.21 0.16 0.18 0.22 0.24 0.26 0.32 0.34 0.49 0.80 1.18 1.49 1.59 1.58 1.70 1.75 1.80 1.73 1.59
0.57 0.40 0.38 0.42 0.38 0.45 0.69 0.56 0.55 0.59 0.62 0.58 0.39 0.41 0.34 0.35 0.46 0.39 0.35 0.33 0.34 0.31 0.28 0.24 0.22 0.21 0.21 0.25 0.30 0.33 0.39 0.51 0.67 0.81 0.98 1.27 1.44 1.52 1.66 1.82 1.99 2.13 2.22 2.15
0.41 0.32 0.35 0.36 0.35 0.39 0.50 0.61 0.72 0.71 0.68 0.65 0.31 0.29 0.33 0.34 0.34 0.35 0.35 0.37 0.36 0.31 0.26 0.25 0.27 0.29 0.32 0.39 0.45 0.48 0.59 0.69 0.76 0.87 1.00 1.14 1.20 1.32 1.52 1.67 1.86 2.04 2.14 2.13
0.41 0.36 0.31 0.29 0.42 0.45 0.48 0.69 0.98 1.03 0.95 0.67 0.26 0.25 0.32 0.25 0.23 0.25 0.27 0.26 0.27 0.28 0.28 0.28 0.27 0.34 0.39 0.47 0.53 0.61 0.69 0.79 0.84 0.90 0.99 1.06 1.09 1.20 1.34 1.39 1.45 1.49 1.51 1.53
0.40 0.41 0.28 0.24 0.31 0.38 0.39 0.49 0.81 0.96 0.77 0.53 0.29 0.36 0.35 0.22 0.17 0.14 0.16 0.19 0.25 0.33 0.35 0.34 0.32 0.40 0.48 0.57 0.69 0.77 0.83 0.86 0.90 0.98 1.05 1.03 1.11 1.22 1.30 1.23 1.18 1.22 1.26 1.32
0.34 0.32 0.19 0.20 0.21 0.24 0.37 0.39 0.45 0.55 0.43 0.45 0.34 0.32 0.25 0.14 0.13 0.12 0.17 0.25 0.34 0.43 0.45 0.46 0.46 0.51 0.58 0.67 0.77 0.84 0.91 0.96 1.01 1.03 1.10 1.23 1.26 1.25 1.21 1.09 1.02 1.05 1.01 1.01
0.26 0.31 0.24 0.22 0.24 0.26 0.31 0.40 0.49 0.55 0.60 0.57 0.39 0.34 0.29 0.19 0.19 0.22 0.28 0.36 0.49 0.60 0.63 0.63 0.67 0.70 0.73 0.76 0.83 0.89 0.98 1.09 1.07 1.06 1.16 1.35 1.31 1.06 0.87 0.76 0.80 0.83 0.86 0.90
0.18 0.29 0.31 0.27 0.24 0.27 0.31 0.31 0.39 0.48 0.48 0.67 0.79 0.77 0.62 0.57 0.46 0.50 0.54 0.62 0.78 0.83 0.84 0.82 0.85 0.88 0.84 0.85 0.91 0.92 0.98 1.14 1.16 1.06 1.15 1.18 0.99 0.73 0.61 0.59 0.56 0.52 0.53 0.59
0.15 0.25 0.30 0.23 0.17 0.17 0.25 0.25 0.27 0.47 0.50 0.55 0.87 0.92 0.79 0.80 0.78 0.88 0.96 1.12 1.06 1.01 1.02 0.93 0.86 0.86 0.77 0.74 0.82 0.88 1.00 1.08 1.02 0.97 0.93 0.76 0.59 0.48 0.43 0.39 0.34 0.30 0.28 0.30
0.19 0.27 0.37 0.36 0.31 0.21 0.20 0.18 0.18 0.27 0.45 0.55 0.88 0.93 0.71 0.79 0.90 1.07 1.17 1.18 0.99 0.84 0.75 0.70 0.67 0.60 0.56 0.58 0.63 0.67 0.79 0.87 0.70 0.62 0.61 0.52 0.43 0.39 0.34 0.29 0.27 0.25 0.24 0.24
0.21 0.24 0.32 0.38 0.32 0.19 0.17 0.15 0.15 0.23 0.42 0.48 0.62 0.68 0.61 0.72 0.88 0.99 1.03 0.91 0.68 0.54 0.49 0.45 0.37 0.33 0.36 0.39 0.40 0.38 0.41 0.51 0.46 0.40 0.39 0.38 0.33 0.32 0.30 0.29 0.31 0.26 0.23 0.23
0.22 0.22 0.18 0.17 0.13 0.12 0.11 0.12 0.14 0.18 0.25 0.39 0.47 0.47 0.48 0.50 0.54 0.56 0.60 0.57 0.46 0.37 0.30 0.27 0.26 0.24 0.28 0.29 0.28 0.27 0.25 0.28 0.30 0.28 0.28 0.32 0.32 0.29 0.26 0.27 0.26 0.24 0.22 0.19
0.22 0.21 0.14 0.13 0.09 0.09 0.08 0.08 0.11 0.14 0.19 0.27 0.28 0.28 0.26 0.22 0.19 0.18 0.22 0.26 0.24 0.21 0.18 0.19 0.19 0.19 0.22 0.22 0.21 0.21 0.20 0.20 0.20 0.18 0.18 0.23 0.27 0.24 0.24 0.23 0.22 0.20 0.20 0.18
0.23 0.23 0.21 0.15 0.09 0.12 0.11 0.06 0.09 0.13 0.13 0.16 0.20 0.23 0.23 0.17 0.11 0.09 0.10 0.11 0.12 0.14 0.15 0.14 0.14 0.19 0.22 0.21 0.21 0.21 0.21 0.19 0.17 0.17 0.19 0.23 0.22 0.17 0.16 0.16 0.14 0.11 0.13 0.14
0.20 0.24 0.30 0.23 0.20 0.22 0.11 0.05 0.05 0.07 0.07 0.11 0.13 0.14 0.15 0.12 0.11 0.09 0.08 0.08 0.09 0.10 0.12 0.13 0.13 0.14 0.19 0.20 0.21 0.22 0.22 0.21 0.18 0.17 0.18 0.21 0.20 0.17 0.13 0.14 0.13 0.09 0.10 0.11
0.17 0.24 0.36 0.33 0.28 0.15 0.08 0.07 0.06 0.05 0.06 0.08 0.07 0.06 0.05 0.06 0.09 0.08 0.06 0.06 0.07 0.08 0.08 0.10 0.12 0.14 0.15 0.16 0.19 0.20 0.19 0.21 0.20 0.19 0.18 0.18 0.19 0.18 0.16 0.13 0.12 0.11 0.13 0.14
0.22 0.25 0.38 0.38 0.34 0.21 0.11 0.06 0.05 0.05 0.09 0.09 0.07 0.06 0.05 0.06 0.09 0.07 0.06 0.05 0.05 0.07 0.07 0.08 0.08 0.11 0.12 0.14 0.18 0.19 0.20 0.17 0.16 0.17 0.18 0.19 0.18 0.16 0.16 0.14 0.14 0.14 0.16 0.17
0.28 0.31 0.33 0.33 0.31 0.17 0.07 0.05 0.06 0.11 0.11 0.09 0.08 0.07 0.07 0.07 0.07 0.06 0.05 0.03 0.05 0.06 0.06 0.06 0.08 0.09 0.10 0.14 0.17 0.22 0.23 0.15 0.14 0.19 0.23 0.24 0.22 0.20 0.22 0.22 0.18 0.17 0.17 0.19
0.30 0.32 0.30 0.30 0.30 0.17 0.07 0.07 0.10 0.11 0.08 0.06 0.06 0.06 0.07 0.06 0.05 0.05 0.05 0.04 0.05 0.06 0.07 0.06 0.07 0.08 0.09 0.13 0.17 0.21 0.25 0.21 0.18 0.21 0.24 0.28 0.28 0.27 0.27 0.27 0.24 0.22 0.22 0.23
0.28 0.29 0.28 0.22 0.16 0.09 0.08 0.09 0.10 0.09 0.08 0.07 0.06 0.06 0.06 0.06 0.05 0.05 0.05 0.04 0.04 0.05 0.05 0.06 0.07 0.07 0.08 0.12 0.15 0.18 0.21 0.23 0.22 0.25 0.26 0.28 0.30 0.29 0.28 0.27 0.25 0.22 0.20 0.20
0.24 0.22 0.24 0.19 0.10 0.09 0.10 0.10 0.10 0.09 0.07 0.05 0.05 0.06 0.06 0.06 0.06 0.06 0.05 0.04 0.04 0.04 0.04 0.05 0.06 0.06 0.07 0.11 0.15 0.22 0.23 0.22 0.26 0.27 0.28 0.28 0.27 0.27 0.27 0.27 0.26 0.23 0.21 0.19
0.28 0.27 0.24 0.21 0.14 0.13 0.13 0.11 0.10 0.10 0.07 0.04 0.03 0.04 0.05 0.05 0.05 0.07 0.07 0.05 0.04 0.04 0.05 0.06 0.06 0.08 0.09 0.12 0.15 0.18 0.21 0.21 0.24 0.26 0.27 0.27 0.25 0.23 0.23 0.23 0.24 0.25 0.24 0.24
0.26 0.30 0.30 0.26 0.18 0.17 0.16 0.12 0.09 0.08 0.07 0.05 0.04 0.04 0.04 0.05 0.07 0.09 0.08 0.06 0.05 0.05 0.05 0.08 0.09 0.09 0.10 0.11 0.12 0.15 0.18 0.19 0.20 0.23 0.24 0.24 0.25 0.23 0.21 0.22 0.24 0.30 0.33 0.34

GEFSCGP_prec_meanprecacc_222.txt.gz
Total_Precipitation_Accumulation
0.58 0.74 0.84 0.79 0.80 0.86 0.77 0.71 0.68 0.54 0.44 0.46 0.45 0.43 0.44 0.41 0.37 0.39 0.41 0.40 0.44 0.37 0.32 0.24 0.22 0.22 0.29 0.33 0.33 0.36 0.40 0.41 0.39 0.34 0.39 0.44 0.45 0.54 0.62 0.69 0.74 0.80 0.82 0.90
0.58 0.60 0.54 0.56 0.63 0.75 0.77 0.77 0.73 0.64 0.47 0.45 0.44 0.45 0.42 0.39 0.36 0.31 0.29 0.28 0.33 0.31 0.29 0.24 0.22 0.19 0.19 0.21 0.25 0.31 0.32 0.32 0.29 0.26 0.31 0.39 0.46 0.53 0.68 0.82 0.93 0.98 0.96 1.01
0.55 0.50 0.43 0.46 0.54 0.68 0.69 0.65 0.59 0.66 0.59 0.53 0.57 0.60 0.49 0.43 0.40 0.32 0.25 0.26 0.29 0.28 0.24 0.23 0.22 0.21 0.17 0.19 0.22 0.26 0.28 0.29 0.28 0.33 0.50 0.77 1.01 1.11 1.15 1.16 1.30 1.39 1.34 1.30
0.70 0.47 0.39 0.42 0.47 0.54 0.73 0.53 0.45 0.56 0.71 0.67 0.56 0.64 0.44 0.41 0.47 0.37 0.29 0.26 0.28 0.29 0.26 0.22 0.21 0.22 0.16 0.19 0.23 0.25 0.27 0.33 0.35 0.49 0.81 1.19 1.50 1.60 1.60 1.71 1.77 1.83 1.74 1.60
0.57 0.40 0.39 0.42 0.39 0.46 0.71 0.58 0.56 0.60 0.64 0.60 0.40 0.43 0.35 0.35 0.46 0.40 0.36 0.34 0.35 0.31 0.28 0.24 0.22 0.22 0.22 0.25 0.30 0.34 0.40 0.54 0.69 0.83 0.99 1.28 1.45 1.54 1.67 1.83 2.01 2.16 2.24 2.16
0.42 0.33 0.35 0.36 0.35 0.40 0.52 0.62 0.73 0.72 0.70 0.66 0.33 0.30 0.34 0.34 0.34 0.35 0.36 0.37 0.36 0.32 0.26 0.25 0.28 0.30 0.32 0.40 0.45 0.49 0.60 0.70 0.78 0.89 1.01 1.15 1.21 1.34 1.54 1.69 1.90 2.08 2.17 2.15
0.42 0.37 0.31 0.30 0.43 0.46 0.49 0.70 0.99 1.05 0.97 0.68 0.27 0.26 0.32 0.25 0.23 0.26 0.28 0.27 0.28 0.28 0.28 0.28 0.27 0.34 0.40 0.48 0.53 0.61 0.70 0.80 0.85 0.92 1.01 1.07 1.10 1.21 1.36 1.43 1.50 1.53 1.54 1.55
0.40 0.42 0.29 0.25 0.31 0.39 0.40 0.50 0.82 0.98 0.78 0.54 0.29 0.37 0.35 0.22 0.18 0.15 0.16 0.20 0.25 0.33 0.35 0.34 0.32 0.41 0.49 0.58 0.70 0.78 0.84 0.87 0.91 0.99 1.06 1.05 1.12 1.23 1.32 1.25 1.21 1.24 1.28 1.34
0.34 0.33 0.20 0.20 0.21 0.25 0.38 0.40 0.46 0.57 0.45 0.45 0.35 0.32 0.25 0.15 0.13 0.12 0.17 0.25 0.34 0.44 0.45 0.46 0.46 0.52 0.58 0.68 0.78 0.85 0.93 0.96 1.02 1.04 1.11 1.25 1.27 1.26 1.23 1.11 1.04 1.07 1.03 1.03
0.26 0.32 0.24 0.22 0.25 0.26 0.31 0.40 0.49 0.57 0.61 0.58 0.39 0.35 0.30 0.20 0.19 0.22 0.28 0.37 0.49 0.60 0.63 0.63 0.67 0.70 0.73 0.76 0.84 0.90 0.99 1.10 1.08 1.07 1.17 1.36 1.32 1.07 0.89 0.78 0.81 0.84 0.88 0.91
0.18 0.30 0.31 0.27 0.24 0.27 0.32 0.31 0.40 0.49 0.49 0.68 0.80 0.78 0.62 0.57 0.46 0.50 0.54 0.62 0.78 0.83 0.84 0.82 0.85 0.88 0.84 0.85 0.91 0.93 0.99 1.15 1.16 1.07 1.15 1.19 1.00 0.75 0.62 0.60 0.57 0.53 0.55 0.60
0.15 0.26 0.30 0.23 0.17 0.17 0.25 0.26 0.28 0.48 0.50 0.55 0.87 0.92 0.79 0.80 0.78 0.88 0.97 1.12 1.06 1.01 1.02 0.93 0.87 0.86 0.77 0.75 0.83 0.88 1.00 1.08 1.02 0.98 0.94 0.77 0.61 0.50 0.45 0.40 0.35 0.31 0.30 0.31
0.19 0.27 0.37 0.36 0.31 0.21 0.20 0.18 0.18 0.27 0.45 0.55 0.89 0.94 0.72 0.79 0.90 1.07 1.17 1.19 0.99 0.84 0.75 0.70 0.68 0.61 0.57 0.59 0.64 0.67 0.79 0.87 0.71 0.62 0.62 0.54 0.44 0.40 0.35 0.30 0.29 0.26 0.25 0.25
0.21 0.24 0.32 0.38 0.32 0.19 0.17 0.15 0.15 0.24 0.43 0.48 0.62 0.68 0.61 0.72 0.88 1.00 1.03 0.91 0.68 0.54 0.49 0.45 0.38 0.35 0.39 0.41 0.42 0.39 0.41 0.52 0.46 0.40 0.41 0.39 0.35 0.33 0.31 0.31 0.32 0.27 0.24 0.25
0.22 0.22 0.18 0.17 0.13 0.12 0.11 0.12 0.14 0.18 0.25 0.40 0.47 0.47 0.48 0.50 0.54 0.56 0.60 0.57 0.46 0.37 0.30 0.28 0.27 0.25 0.29 0.30 0.29 0.28 0.25 0.28 0.30 0.29 0.29 0.34 0.34 0.32 0.28 0.28 0.27 0.26 0.23 0.21
0.23 0.22 0.14 0.13 0.09 0.09 0.08 0.08 0.11 0.14 0.19 0.27 0.28 0.29 0.26 0.22 0.19 0.18 0.22 0.26 0.25 0.21 0.18 0.19 0.20 0.21 0.23 0.24 0.22 0.21 0.20 0.20 0.20 0.20 0.20 0.26 0.31 0.28 0.27 0.25 0.23 0.21 0.21 0.20
0.24 0.24 0.22 0.15 0.09 0.12 0.11 0.06 0.09 0.13 0.13 0.16 0.20 0.23 0.23 0.17 0.11 0.10 0.10 0.11 0.12 0.14 0.15 0.15 0.15 0.21 0.24 0.23 0.23 0.22 0.21 0.19 0.18 0.18 0.20 0.26 0.27 0.22 0.19 0.18 0.16 0.13 0.14 0.15
0.20 0.24 0.31 0.23 0.20 0.22 0.11 0.05 0.05 0.07 0.07 0.11 0.14 0.14 0.16 0.13 0.11 0.09 0.08 0.09 0.10 0.11 0.12 0.14 0.14 0.17 0.23 0.25 0.26 0.26 0.24 0.22 0.19 0.18 0.20 0.24 0.25 0.23 0.18 0.17 0.14 0.11 0.10 0.12
0.17 0.25 0.37 0.34 0.28 0.15 0.08 0.07 0.06 0.05 0.06 0.08 0.07 0.06 0.05 0.06 0.10 0.08 0.06 0.07 0.07 0.08 0.09 0.10 0.13 0.17 0.21 0.24 0.27 0.27 0.24 0.23 0.22 0.21 0.20 0.20 0.22 0.22 0.20 0.17 0.15 0.12 0.14 0.15
0.22 0.25 0.38 0.39 0.34 0.22 0.11 0.06 0.05 0.06 0.09 0.09 0.08 0.06 0.05 0.06 0.10 0.08 0.06 0.05 0.06 0.07 0.07 0.08 0.09 0.13 0.18 0.23 0.25 0.27 0.28 0.22 0.19 0.20 0.21 0.21 0.20 0.18 0.19 0.18 0.17 0.16 0.18 0.18
0.28 0.32 0.34 0.34 0.32 0.17 0.07 0.05 0.06 0.11 0.12 0.09 0.08 0.07 0.07 0.07 0.07 0.06 0.05 0.04 0.05 0.06 0.07 0.07 0.09 0.11 0.14 0.19 0.22 0.28 0.28 0.20 0.18 0.22 0.26 0.27 0.24 0.22 0.25 0.25 0.23 0.20 0.20 0.21
0.31 0.33 0.31 0.31 0.31 0.18 0.07 0.07 0.11 0.11 0.08 0.06 0.06 0.06 0.07 0.06 0.06 0.05 0.05 0.05 0.05 0.06 0.07 0.07 0.08 0.09 0.10 0.15 0.20 0.24 0.28 0.26 0.24 0.25 0.28 0.30 0.31 0.30 0.30 0.30 0.28 0.27 0.25 0.26
0.29 0.30 0.28 0.23 0.17 0.09 0.08 0.10 0.10 0.09 0.08 0.07 0.07 0.07 0.06 0.06 0.05 0.05 0.05 0.05 0.05 0.05 0.06 0.06 0.07 0.08 0.09 0.14 0.17 0.22 0.26 0.30 0.27 0.27 0.28 0.30 0.33 0.32 0.30 0.29 0.29 0.28 0.24 0.24
0.25 0.22 0.25 0.20 0.10 0.10 0.11 0.10 0.10 0.10 0.07 0.05 0.05 0.06 0.07 0.06 0.06 0.06 0.05 0.04 0.04 0.04 0.05 0.06 0.07 0.07 0.09 0.13 0.19 0.29 0.30 0.28 0.29 0.29 0.30 0.30 0.30 0.29 0.29 0.29 0.28 0.26 0.25 0.23
0.30 0.29 0.26 0.23 0.15 0.14 0.14 0.12 0.10 0.10 0.07 0.04 0.04 0.05 0.06 0.06 0.06 0.07 0.07 0.05 0.04 0.04 0.05 0.06 0.07 0.09 0.10 0.14 0.19 0.27 0.27 0.27 0.28 0.30 0.31 0.30 0.28 0.24 0.24 0.24 0.26 0.26 0.26 0.27
0.27 0.31 0.32 0.29 0.20 0.19 0.17 0.13 0.09 0.09 0.07 0.06 0.05 0.05 0.05 0.06 0.07 0.10 0.09 0.06 0.06 0.05 0.06 0.09 0.10 0.11 0.11 0.12 0.15 0.20 0.22 0.25 0.27 0.27 0.27 0.27 0.27 0.24 0.22 0.23 0.25 0.30 0.34 0.36

GEFSCGP_prec_meanprecacc_228.txt.gz
Total_Precipitation_Accumulation
0.58 0.74 0.84 0.79 0.80 0.86 0.77 0.72 0.69 0.56 0.44 0.46 0.45 0.44 0.45 0.41 0.37 0.39 0.41 0.40 0.44 0.37 0.32 0.25 0.22 0.22 0.30 0.34 0.36 0.39 0.42 0.42 0.40 0.36 0.41 0.47 0.49 0.58 0.66 0.73 0.78 0.82 0.84 0.92
0.58 0.60 0.54 0.56 0.63 0.75 0.77 0.78 0.74 0.66 0.48 0.45 0.45 0.47 0.43 0.40 0.37 0.31 0.29 0.28 0.33 0.32 0.29 0.24 0.22 0.19 0.19 0.22 0.27 0.34 0.35 0.32 0.29 0.26 0.31 0.40 0.47 0.55 0.71 0.87 1.05 1.03 0.98 1.02
0.55 0.50 0.43 0.46 0.54 0.68 0.70 0.66 0.60 0.67 0.59 0.54 0.58 0.62 0.51 0.44 0.41 0.33 0.25 0.26 0.30 0.28 0.25 0.24 0.23 0.22 0.18 0.19 0.23 0.27 0.30 0.30 0.28 0.33 0.52 0.79 1.04 1.14 1.19 1.22 1.42 1.45 1.37 1.32
0.70 0.48 0.39 0.42 0.47 0.54 0.74 0.54 0.47 0.58 0.72 0.69 0.58 0.66 0.46 0.42 0.48 0.38 0.30 0.26 0.28 0.29 0.26 0.23 0.21 0.22 0.16 0.19 0.23 0.26 0.29 0.36 0.37 0.51 0.82 1.21 1.54 1.64 1.64 1.75 1.80 1.87 1.78 1.62
0.57 0.40 0.39 0.43 0.39 0.47 0.72 0.58 0.58 0.62 0.66 0.61 0.41 0.44 0.37 0.35 0.47 0.40 0.37 0.34 0.35 0.32 0.28 0.24 0.23 0.22 0.22 0.25 0.30 0.34 0.41 0.55 0.71 0.85 1.01 1.31 1.48 1.57 1.71 1.86 2.07 2.22 2.28 2.19
0.42 0.33 0.35 0.37 0.35 0.40 0.53 0.64 0.75 0.75 0.72 0.68 0.34 0.31 0.35 0.34 0.34 0.35 0.36 0.38 0.37 0.32 0.26 0.26 0.28 0.30 0.33 0.40 0.45 0.49 0.61 0.72 0.80 0.90 1.03 1.18 1.24 1.38 1.59 1.76 1.98 2.13 2.21 2.18
0.42 0.38 0.31 0.30 0.43 0.47 0.50 0.72 1.02 1.10 1.01 0.70 0.28 0.27 0.33 0.26 0.23 0.26 0.28 0.27 0.28 0.28 0.28 0.28 0.28 0.35 0.40 0.48 0.54 0.62 0.70 0.81 0.87 0.93 1.03 1.09 1.13 1.25 1.41 1.48 1.55 1.58 1.57 1.58
0.41 0.42 0.29 0.25 0.31 0.40 0.43 0.52 0.85 1.03 0.82 0.56 0.30 0.38 0.36 0.22 0.18 0.15 0.16 0.20 0.26 0.33 0.35 0.34 0.32 0.41 0.49 0.58 0.70 0.78 0.85 0.88 0.92 1.01 1.08 1.07 1.15 1.26 1.35 1.29 1.24 1.28 1.31 1.36
0.35 0.33 0.20 0.20 0.22 0.26 0.40 0.42 0.47 0.59 0.47 0.47 0.36 0.33 0.26 0.15 0.14 0.13 0.17 0.25 0.34 0.44 0.45 0.46 0.46 0.52 0.58 0.68 0.78 0.85 0.93 0.97 1.03 1.06 1.13 1.27 1.30 1.29 1.26 1.14 1.07 1.10 1.05 1.04
0.26 0.32 0.25 0.22 0.25 0.27 0.32 0.41 0.50 0.58 0.64 0.60 0.40 0.35 0.30 0.20 0.20 0.22 0.28 0.37 0.49 0.60 0.63 0.64 0.68 0.71 0.74 0.77 0.84 0.90 0.99 1.10 1.09 1.08 1.19 1.37 1.34 1.09 0.91 0.81 0.84 0.88 0.91 0.93
0.19 0.30 0.32 0.27 0.25 0.28 0.32 0.32 0.40 0.50 0.50 0.69 0.81 0.78 0.63 0.57 0.46 0.51 0.54 0.62 0.79 0.83 0.84 0.82 0.85 0.88 0.85 0.85 0.91 0.93 0.99 1.15 1.17 1.07 1.16 1.20 1.02 0.77 0.65 0.62 0.59 0.57 0.58 0.63
0.16 0.27 0.31 0.24 0.17 0.17 0.25 0.26 0.28 0.48 0.51 0.55 0.88 0.93 0.79 0.81 0.78 0.88 0.97 1.12 1.06 1.02 1.02 0.93 0.87 0.86 0.77 0.75 0.83 0.89 1.00 1.09 1.03 0.98 0.94 0.78 0.62 0.52 0.47 0.42 0.37 0.34 0.34 0.35
0.20 0.28 0.39 0.37 0.31 0.21 0.20 0.18 0.18 0.27 0.45 0.56 0.89 0.95 0.72 0.79 0.90 1.07 1.18 1.19 0.99 0.84 0.75 0.70 0.68 0.61 0.57 0.59 0.65 0.69 0.80 0.88 0.71 0.62 0.62 0.54 0.45 0.41 0.37 0.31 0.30 0.28 0.29 0.29
0.23 0.26 0.34 0.39 0.32 0.20 0.17 0.15 0.15 0.24 0.43 0.48 0.62 0.68 0.61 0.72 0.88 1.00 1.03 0.91 0.68 0.54 0.49 0.46 0.38 0.35 0.39 0.42 0.42 0.39 0.42 0.52 0.46 0.40 0.42 0.41 0.35 0.33 0.32 0.32 0.34 0.29 0.28 0.28
0.24 0.24 0.19 0.18 0.13 0.12 0.12 0.12 0.14 0.18 0.25 0.40 0.47 0.47 0.48 0.50 0.54 0.56 0.60 0.57 0.46 0.37 0.30 0.28 0.27 0.26 0.29 0.30 0.30 0.28 0.26 0.28 0.30 0.30 0.30 0.36 0.36 0.33 0.29 0.30 0.29 0.28 0.27 0.24
0.25 0.23 0.15 0.13 0.10 0.09 0.08 0.08 0.11 0.14 0.19 0.27 0.28 0.29 0.26 0.22 0.19 0.18 0.22 0.26 0.25 0.21 0.19 0.20 0.20 0.21 0.24 0.24 0.22 0.22 0.21 0.21 0.21 0.21 0.21 0.27 0.32 0.30 0.30 0.28 0.26 0.25 0.25 0.23
0.28 0.27 0.23 0.15 0.09 0.12 0.11 0.06 0.09 0.13 0.13 0.16 0.20 0.23 0.23 0.17 0.11 0.10 0.10 0.11 0.12 0.14 0.16 0.15 0.16 0.21 0.25 0.24 0.25 0.24 0.22 0.20 0.19 0.20 0.22 0.27 0.28 0.24 0.22 0.21 0.19 0.17 0.19 0.19
0.22 0.27 0.33 0.25 0.21 0.22 0.11 0.05 0.05 0.07 0.07 0.11 0.14 0.14 0.16 0.13 0.11 0.09 0.08 0.09 0.10 0.11 0.12 0.14 0.15 0.17 0.24 0.26 0.28 0.28 0.26 0.23 0.20 0.20 0.21 0.24 0.25 0.24 0.20 0.19 0.17 0.14 0.14 0.17
0.18 0.27 0.40 0.36 0.29 0.15 0.08 0.07 0.06 0.05 0.06 0.08 0.08 0.06 0.05 0.06 0.10 0.08 0.06 0.07 0.08 0.08 0.09 0.11 0.13 0.18 0.22 0.26 0.30 0.31 0.27 0.25 0.23 0.22 0.20 0.21 0.22 0.23 0.22 0.19 0.17 0.15 0.17 0.18
0.23 0.27 0.41 0.40 0.36 0.22 0.11 0.06 0.05 0.06 0.09 0.09 0.08 0.06 0.05 0.06 0.10 0.08 0.06 0.05 0.06 0.07 0.07 0.08 0.10 0.14 0.20 0.27 0.30 0.31 0.32 0.24 0.20 0.20 0.21 0.21 0.20 0.19 0.21 0.19 0.19 0.18 0.20 0.21
0.29 0.34 0.37 0.36 0.33 0.18 0.07 0.05 0.06 0.11 0.12 0.09 0.08 0.07 0.07 0.07 0.07 0.06 0.05 0.04 0.05 0.06 0.07 0.07 0.09 0.11 0.17 0.26 0.29 0.33 0.33 0.23 0.20 0.23 0.26 0.27 0.25 0.23 0.26 0.26 0.24 0.22 0.22 0.25
0.33 0.35 0.33 0.33 0.33 0.20 0.07 0.07 0.11 0.12 0.08 0.06 0.06 0.06 0.07 0.06 0.06 0.05 0.05 0.05 0.06 0.07 0.07 0.07 0.08 0.09 0.12 0.21 0.28 0.31 0.33 0.30 0.27 0.27 0.29 0.31 0.32 0.31 0.31 0.31 0.30 0.29 0.28 0.30
0.32 0.32 0.30 0.25 0.19 0.11 0.08 0.10 0.11 0.09 0.08 0.07 0.07 0.07 0.06 0.06 0.06 0.05 0.05 0.05 0.05 0.06 0.06 0.07 0.08 0.08 0.11 0.18 0.23 0.27 0.31 0.34 0.31 0.31 0.31 0.33 0.35 0.34 0.32 0.31 0.32 0.31 0.28 0.28
0.28 0.24 0.26 0.21 0.12 0.11 0.11 0.10 0.10 0.10 0.08 0.06 0.05 0.06 0.07 0.06 0.07 0.06 0.05 0.04 0.04 0.05 0.05 0.06 0.07 0.08 0.10 0.17 0.23 0.33 0.35 0.32 0.33 0.34 0.35 0.35 0.33 0.32 0.31 0.31 0.30 0.29 0.28 0.27
0.33 0.31 0.28 0.25 0.17 0.15 0.15 0.12 0.10 0.10 0.07 0.05 0.04 0.05 0.06 0.06 0.06 0.07 0.07 0.05 0.05 0.05 0.06 0.07 0.08 0.10 0.12 0.17 0.23 0.31 0.31 0.31 0.33 0.35 0.36 0.35 0.33 0.29 0.29 0.28 0.28 0.28 0.27 0.29
0.30 0.33 0.34 0.31 0.21 0.20 0.18 0.13 0.10 0.09 0.08 0.06 0.05 0.05 0.05 0.06 0.08 0.10 0.09 0.07 0.06 0.06 0.07 0.10 0.11 0.12 0.13 0.16 0.18 0.23 0.26 0.28 0.30 0.32 0.32 0.31 0.33 0.30 0.27 0.26 0.28 0.32 0.35 0.37

GEFSCGP_prec_meanprecacc_234.txt.gz
Total_Precipitation_Accumulation
0.58 0.74 0.84 0.79 0.81 0.86 0.77 0.72 0.70 0.56 0.45 0.49 0.48 0.46 0.46 0.42 0.38 0.39 0.42 0.40 0.44 0.38 0.33 0.25 0.23 0.23 0.30 0.35 0.37 0.42 0.46 0.45 0.42 0.37 0.43 0.50 0.53 0.65 0.73 0.80 0.87 0.87 0.87 0.94
0.58 0.60 0.54 0.56 0.63 0.75 0.77 0.78 0.75 0.66 0.49 0.47 0.49 0.50 0.45 0.41 0.37 0.32 0.29 0.28 0.33 0.32 0.30 0.25 0.23 0.20 0.20 0.23 0.28 0.35 0.37 0.35 0.31 0.29 0.34 0.43 0.50 0.60 0.77 0.93 1.14 1.09 1.01 1.05
0.56 0.50 0.43 0.46 0.54 0.68 0.70 0.66 0.60 0.68 0.60 0.56 0.61 0.65 0.53 0.47 0.41 0.33 0.25 0.27 0.30 0.28 0.25 0.24 0.24 0.22 0.18 0.20 0.23 0.27 0.31 0.32 0.30 0.37 0.56 0.82 1.07 1.17 1.24 1.28 1.49 1.53 1.41 1.36
0.70 0.48 0.40 0.43 0.48 0.54 0.75 0.54 0.47 0.58 0.74 0.71 0.60 0.69 0.49 0.44 0.49 0.39 0.31 0.27 0.28 0.29 0.26 0.23 0.22 0.23 0.17 0.19 0.24 0.27 0.29 0.36 0.38 0.53 0.85 1.25 1.57 1.67 1.67 1.78 1.85 1.92 1.82 1.66
0.58 0.40 0.39 0.43 0.40 0.47 0.72 0.58 0.58 0.63 0.67 0.63 0.44 0.47 0.38 0.37 0.47 0.41 0.37 0.35 0.35 0.32 0.29 0.25 0.23 0.23 0.23 0.25 0.31 0.35 0.41 0.56 0.72 0.87 1.03 1.33 1.52 1.61 1.74 1.90 2.11 2.26 2.32 2.24
0.42 0.33 0.36 0.37 0.36 0.41 0.54 0.65 0.76 0.77 0.74 0.70 0.36 0.32 0.36 0.35 0.35 0.36 0.36 0.39 0.38 0.32 0.27 0.26 0.29 0.31 0.33 0.40 0.46 0.50 0.62 0.73 0.81 0.91 1.05 1.20 1.27 1.40 1.62 1.80 2.02 2.17 2.26 2.24
0.44 0.39 0.32 0.30 0.43 0.48 0.51 0.74 1.04 1.12 1.02 0.71 0.29 0.28 0.34 0.26 0.23 0.26 0.28 0.27 0.28 0.29 0.28 0.29 0.28 0.35 0.40 0.48 0.54 0.62 0.71 0.83 0.87 0.94 1.04 1.11 1.15 1.28 1.43 1.51 1.58 1.61 1.62 1.63
0.42 0.43 0.29 0.25 0.32 0.40 0.43 0.53 0.87 1.04 0.84 0.58 0.31 0.38 0.37 0.23 0.18 0.15 0.17 0.21 0.26 0.33 0.35 0.34 0.32 0.41 0.49 0.59 0.70 0.78 0.85 0.89 0.93 1.02 1.09 1.09 1.18 1.30 1.37 1.32 1.27 1.31 1.34 1.40
0.35 0.34 0.20 0.21 0.22 0.26 0.41 0.42 0.48 0.61 0.49 0.49 0.37 0.34 0.26 0.15 0.14 0.13 0.18 0.26 0.35 0.44 0.46 0.46 0.47 0.52 0.59 0.69 0.79 0.86 0.94 0.98 1.03 1.06 1.14 1.28 1.32 1.31 1.29 1.18 1.11 1.14 1.09 1.08
0.27 0.33 0.25 0.22 0.25 0.27 0.32 0.41 0.50 0.59 0.65 0.61 0.41 0.36 0.31 0.20 0.20 0.23 0.29 0.38 0.50 0.60 0.63 0.64 0.68 0.71 0.74 0.77 0.85 0.92 1.01 1.12 1.10 1.09 1.20 1.39 1.35 1.11 0.94 0.86 0.90 0.94 0.96 0.97
0.19 0.31 0.33 0.28 0.25 0.28 0.33 0.32 0.41 0.50 0.50 0.70 0.82 0.80 0.63 0.58 0.47 0.51 0.54 0.63 0.80 0.84 0.85 0.82 0.86 0.89 0.85 0.86 0.92 0.95 1.01 1.17 1.18 1.07 1.17 1.20 1.03 0.79 0.68 0.66 0.64 0.62 0.64 0.68
0.16 0.28 0.32 0.24 0.17 0.17 0.26 0.26 0.29 0.49 0.51 0.56 0.89 0.94 0.80 0.82 0.79 0.88 0.97 1.13 1.07 1.02 1.03 0.93 0.87 0.87 0.77 0.75 0.84 0.90 1.02 1.11 1.05 0.99 0.95 0.79 0.63 0.53 0.49 0.44 0.39 0.37 0.39 0.40
0.21 0.29 0.40 0.38 0.32 0.22 0.21 0.18 0.19 0.28 0.47 0.56 0.90 0.96 0.73 0.80 0.91 1.07 1.18 1.19 0.99 0.84 0.76 0.71 0.68 0.62 0.57 0.60 0.65 0.70 0.82 0.90 0.73 0.63 0.64 0.56 0.46 0.43 0.38 0.34 0.33 0.31 0.33 0.33
0.24 0.28 0.36 0.42 0.34 0.20 0.18 0.15 0.16 0.25 0.45 0.49 0.63 0.69 0.63 0.73 0.89 1.00 1.03 0.92 0.69 0.55 0.50 0.46 0.38 0.35 0.39 0.42 0.42 0.40 0.43 0.53 0.47 0.41 0.44 0.42 0.36 0.35 0.34 0.34 0.36 0.32 0.31 0.32
0.26 0.26 0.21 0.20 0.15 0.13 0.12 0.13 0.15 0.19 0.26 0.41 0.48 0.48 0.49 0.51 0.54 0.57 0.60 0.58 0.47 0.38 0.31 0.28 0.28 0.26 0.30 0.30 0.30 0.28 0.26 0.29 0.32 0.31 0.32 0.37 0.37 0.35 0.31 0.32 0.31 0.30 0.30 0.28
0.26 0.25 0.17 0.15 0.12 0.11 0.09 0.08 0.12 0.15 0.20 0.28 0.29 0.29 0.26 0.23 0.19 0.19 0.22 0.27 0.25 0.22 0.19 0.20 0.21 0.22 0.24 0.25 0.23 0.22 0.21 0.22 0.22 0.22 0.22 0.29 0.34 0.33 0.32 0.30 0.28 0.27 0.28 0.26
0.29 0.28 0.25 0.17 0.11 0.15 0.13 0.07 0.09 0.14 0.13 0.16 0.21 0.24 0.23 0.18 0.12 0.10 0.11 0.11 0.12 0.14 0.16 0.16 0.16 0.22 0.25 0.25 0.25 0.25 0.23 0.20 0.20 0.21 0.23 0.28 0.29 0.25 0.24 0.24 0.21 0.18 0.21 0.22
0.24 0.29 0.35 0.26 0.23 0.25 0.12 0.06 0.05 0.07 0.08 0.12 0.14 0.15 0.16 0.13 0.11 0.10 0.08 0.09 0.10 0.11 0.12 0.14 0.15 0.18 0.25 0.27 0.28 0.29 0.27 0.24 0.20 0.21 0.22 0.25 0.26 0.25 0.22 0.21 0.18 0.15 0.16 0.19
0.19 0.29 0.42 0.37 0.30 0.17 0.09 0.07 0.06 0.05 0.06 0.08 0.08 0.07 0.06 0.07 0.10 0.08 0.06 0.07 0.08 0.08 0.09 0.11 0.13 0.18 0.23 0.27 0.31 0.32 0.28 0.26 0.24 0.23 0.21 0.22 0.23 0.25 0.24 0.20 0.19 0.17 0.19 0.21
0.24 0.28 0.43 0.42 0.37 0.24 0.12 0.06 0.05 0.06 0.09 0.09 0.08 0.06 0.05 0.07 0.10 0.08 0.06 0.05 0.06 0.07 0.07 0.08 0.10 0.14 0.20 0.27 0.31 0.33 0.33 0.26 0.22 0.22 0.23 0.23 0.21 0.20 0.23 0.22 0.21 0.20 0.22 0.24
0.33 0.36 0.39 0.38 0.35 0.19 0.08 0.06 0.06 0.12 0.12 0.09 0.08 0.07 0.07 0.07 0.07 0.07 0.05 0.04 0.05 0.06 0.07 0.07 0.09 0.12 0.17 0.26 0.30 0.35 0.35 0.25 0.22 0.25 0.28 0.29 0.26 0.24 0.28 0.29 0.27 0.25 0.25 0.27
0.37 0.38 0.36 0.35 0.36 0.22 0.08 0.09 0.12 0.12 0.08 0.07 0.07 0.07 0.07 0.06 0.06 0.05 0.05 0.05 0.06 0.07 0.07 0.07 0.08 0.10 0.13 0.22 0.30 0.34 0.36 0.32 0.29 0.29 0.31 0.33 0.33 0.33 0.33 0.34 0.34 0.33 0.32 0.32
0.35 0.35 0.34 0.27 0.21 0.13 0.09 0.12 0.12 0.09 0.09 0.07 0.07 0.07 0.07 0.06 0.06 0.05 0.05 0.05 0.05 0.06 0.06 0.07 0.08 0.09 0.11 0.19 0.25 0.30 0.34 0.37 0.33 0.33 0.33 0.34 0.36 0.36 0.35 0.35 0.36 0.36 0.33 0.32
0.31 0.27 0.29 0.24 0.14 0.12 0.12 0.11 0.11 0.11 0.08 0.06 0.06 0.07 0.07 0.07 0.07 0.06 0.05 0.04 0.04 0.05 0.05 0.07 0.07 0.08 0.11 0.19 0.26 0.37 0.39 0.35 0.36 0.36 0.37 0.36 0.35 0.34 0.34 0.34 0.34 0.32 0.32 0.31
0.37 0.35 0.32 0.28 0.20 0.17 0.17 0.14 0.11 0.11 0.08 0.05 0.04 0.05 0.07 0.07 0.06 0.08 0.08 0.06 0.05 0.05 0.06 0.08 0.08 0.10 0.13 0.18 0.26 0.36 0.37 0.36 0.37 0.38 0.38 0.37 0.34 0.31 0.31 0.31 0.31 0.31 0.30 0.33
0.34 0.37 0.39 0.37 0.25 0.23 0.21 0.15 0.11 0.10 0.08 0.06 0.05 0.05 0.06 0.06 0.08 0.10 0.09 0.07 0.07 0.06 0.08 0.10 0.12 0.13 0.14 0.17 0.22 0.29 0.34 0.35 0.37 0.37 0.36 0.33 0.34 0.32 0.29 0.29 0.31 0.36 0.38 0.40

GEFSCGP_prec_meanprecacc_240.txt.gz
Total_Precipitation_Accumulation
0.58 0.74 0.84 0.79 0.81 0.86 0.77 0.72 0.70 0.56 0.46 0.50 0.51 0.49 0.46 0.42 0.38 0.40 0.42 0.40 0.44 0.38 0.33 0.26 0.24 0.24 0.31 0.35 0.38 0.43 0.47 0.47 0.44 0.40 0.45 0.52 0.55 0.67 0.77 0.83 0.89 0.89 0.90 0.99
0.58 0.60 0.54 0.56 0.63 0.75 0.77 0.78 0.75 0.67 0.49 0.49 0.51 0.53 0.47 0.41 0.38 0.32 0.29 0.28 0.33 0.32 0.30 0.25 0.24 0.22 0.21 0.24 0.28 0.35 0.37 0.36 0.33 0.31 0.36 0.44 0.52 0.63 0.81 0.97 1.18 1.12 1.04 1.09
0.56 0.50 0.43 0.46 0.54 0.68 0.70 0.66 0.60 0.68 0.61 0.56 0.63 0.68 0.57 0.48 0.42 0.33 0.26 0.27 0.30 0.28 0.25 0.24 0.24 0.24 0.19 0.21 0.24 0.28 0.31 0.32 0.31 0.39 0.57 0.84 1.10 1.22 1.28 1.32 1.53 1.56 1.44 1.39
0.70 0.48 0.40 0.43 0.48 0.54 0.75 0.54 0.47 0.58 0.74 0.71 0.61 0.71 0.53 0.46 0.49 0.39 0.31 0.27 0.28 0.29 0.27 0.24 0.23 0.23 0.17 0.20 0.25 0.28 0.31 0.38 0.39 0.54 0.86 1.25 1.59 1.71 1.70 1.81 1.88 1.96 1.87 1.69
0.58 0.40 0.39 0.43 0.40 0.47 0.72 0.59 0.58 0.63 0.68 0.64 0.44 0.48 0.42 0.40 0.48 0.41 0.38 0.35 0.35 0.32 0.29 0.25 0.24 0.24 0.23 0.26 0.32 0.37 0.43 0.58 0.74 0.88 1.03 1.34 1.52 1.62 1.75 1.91 2.14 2.29 2.36 2.27
0.42 0.34 0.36 0.37 0.36 0.41 0.54 0.66 0.77 0.77 0.75 0.70 0.36 0.33 0.39 0.38 0.36 0.36 0.37 0.39 0.38 0.32 0.27 0.26 0.29 0.32 0.34 0.40 0.47 0.51 0.63 0.75 0.83 0.94 1.07 1.21 1.28 1.41 1.63 1.82 2.05 2.21 2.29 2.27
0.45 0.41 0.33 0.31 0.44 0.48 0.52 0.75 1.05 1.12 1.02 0.72 0.30 0.29 0.35 0.29 0.25 0.27 0.29 0.28 0.28 0.29 0.29 0.29 0.29 0.35 0.40 0.48 0.54 0.62 0.72 0.84 0.89 0.96 1.06 1.12 1.17 1.30 1.45 1.53 1.61 1.65 1.65 1.67
0.42 0.44 0.30 0.26 0.32 0.41 0.44 0.54 0.87 1.05 0.85 0.59 0.33 0.39 0.37 0.24 0.20 0.16 0.17 0.21 0.27 0.34 0.36 0.35 0.33 0.42 0.50 0.59 0.71 0.79 0.86 0.90 0.94 1.03 1.10 1.11 1.20 1.32 1.39 1.34 1.30 1.34 1.38 1.44
0.35 0.34 0.21 0.21 0.22 0.27 0.41 0.42 0.49 0.62 0.50 0.50 0.38 0.34 0.27 0.17 0.16 0.14 0.18 0.27 0.36 0.45 0.46 0.47 0.47 0.52 0.59 0.69 0.80 0.88 0.96 1.00 1.04 1.07 1.15 1.30 1.34 1.34 1.32 1.21 1.15 1.18 1.13 1.11
0.27 0.33 0.26 0.23 0.26 0.28 0.33 0.42 0.51 0.61 0.67 0.62 0.42 0.37 0.31 0.22 0.21 0.24 0.29 0.38 0.51 0.61 0.64 0.64 0.69 0.72 0.74 0.78 0.86 0.93 1.02 1.13 1.10 1.10 1.21 1.40 1.37 1.13 0.97 0.89 0.93 0.98 0.99 1.00
0.19 0.31 0.33 0.28 0.26 0.28 0.34 0.33 0.41 0.51 0.52 0.72 0.84 0.80 0.63 0.59 0.48 0.51 0.55 0.64 0.80 0.84 0.85 0.83 0.86 0.90 0.86 0.87 0.94 0.97 1.02 1.18 1.19 1.08 1.18 1.22 1.05 0.81 0.70 0.69 0.68 0.66 0.68 0.71
0.16 0.28 0.32 0.25 0.17 0.18 0.27 0.27 0.30 0.51 0.53 0.57 0.90 0.95 0.80 0.83 0.79 0.89 0.97 1.13 1.08 1.03 1.03 0.94 0.88 0.88 0.79 0.77 0.85 0.92 1.04 1.13 1.06 1.01 0.96 0.81 0.66 0.55 0.51 0.47 0.42 0.41 0.43 0.45
0.21 0.30 0.41 0.39 0.33 0.22 0.22 0.19 0.20 0.30 0.48 0.58 0.91 0.96 0.73 0.82 0.92 1.07 1.18 1.19 1.00 0.84 0.76 0.72 0.69 0.62 0.58 0.60 0.65 0.70 0.83 0.92 0.74 0.65 0.66 0.58 0.48 0.44 0.40 0.36 0.36 0.34 0.37 0.38
0.25 0.28 0.37 0.43 0.34 0.21 0.19 0.16 0.17 0.26 0.47 0.51 0.63 0.69 0.63 0.74 0.90 1.00 1.04 0.92 0.69 0.55 0.50 0.46 0.39 0.36 0.39 0.42 0.42 0.40 0.43 0.54 0.49 0.43 0.46 0.44 0.38 0.37 0.36 0.37 0.38 0.35 0.35 0.35
0.26 0.28 0.22 0.21 0.15 0.13 0.13 0.14 0.15 0.20 0.27 0.43 0.49 0.48 0.49 0.52 0.55 0.57 0.61 0.58 0.47 0.38 0.31 0.29 0.28 0.26 0.30 0.31 0.31 0.29 0.27 0.30 0.32 0.32 0.34 0.39 0.39 0.38 0.34 0.34 0.33 0.32 0.33 0.31
0.27 0.25 0.17 0.16 0.12 0.11 0.10 0.09 0.12 0.16 0.20 0.29 0.30 0.30 0.27 0.24 0.20 0.20 0.23 0.27 0.25 0.22 0.20 0.21 0.21 0.22 0.25 0.25 0.24 0.23 0.22 0.22 0.23 0.22 0.23 0.30 0.36 0.36 0.36 0.32 0.29 0.29 0.30 0.29
0.29 0.28 0.25 0.17 0.11 0.15 0.13 0.07 0.09 0.14 0.14 0.17 0.22 0.25 0.24 0.18 0.13 0.11 0.11 0.11 0.12 0.14 0.16 0.16 0.17 0.22 0.26 0.25 0.26 0.25 0.24 0.21 0.20 0.21 0.23 0.29 0.30 0.27 0.28 0.28 0.24 0.20 0.22 0.23
0.24 0.29 0.36 0.27 0.23 0.26 0.13 0.06 0.06 0.07 0.08 0.12 0.15 0.16 0.17 0.14 0.12 0.11 0.09 0.09 0.10 0.11 0.12 0.14 0.15 0.18 0.25 0.27 0.29 0.29 0.27 0.25 0.22 0.22 0.23 0.26 0.27 0.26 0.24 0.24 0.21 0.18 0.19 0.21
0.19 0.29 0.43 0.39 0.32 0.17 0.09 0.07 0.07 0.06 0.06 0.09 0.08 0.07 0.07 0.08 0.11 0.09 0.07 0.07 0.08 0.08 0.09 0.11 0.14 0.18 0.24 0.27 0.32 0.33 0.29 0.27 0.26 0.25 0.23 0.23 0.24 0.25 0.25 0.21 0.20 0.18 0.22 0.23
0.25 0.29 0.45 0.45 0.40 0.25 0.12 0.07 0.06 0.07 0.10 0.10 0.08 0.07 0.06 0.07 0.11 0.09 0.07 0.05 0.06 0.07 0.07 0.08 0.10 0.14 0.20 0.28 0.32 0.34 0.34 0.28 0.24 0.24 0.25 0.25 0.23 0.21 0.23 0.22 0.22 0.21 0.24 0.26
0.34 0.38 0.42 0.41 0.38 0.20 0.09 0.07 0.08 0.14 0.14 0.10 0.09 0.08 0.08 0.08 0.08 0.07 0.05 0.04 0.05 0.07 0.07 0.07 0.10 0.12 0.17 0.27 0.30 0.36 0.36 0.26 0.24 0.28 0.31 0.31 0.28 0.26 0.29 0.30 0.28 0.26 0.26 0.29
0.40 0.42 0.38 0.37 0.38 0.23 0.08 0.10 0.14 0.16 0.10 0.08 0.08 0.07 0.08 0.07 0.06 0.06 0.05 0.05 0.06 0.07 0.08 0.07 0.09 0.10 0.13 0.22 0.30 0.34 0.36 0.34 0.31 0.31 0.34 0.35 0.35 0.34 0.35 0.35 0.36 0.35 0.33 0.34
0.38 0.40 0.38 0.30 0.23 0.14 0.10 0.13 0.14 0.12 0.11 0.08 0.08 0.08 0.08 0.07 0.06 0.05 0.06 0.05 0.05 0.06 0.06 0.07 0.08 0.09 0.12 0.20 0.26 0.31 0.35 0.38 0.35 0.35 0.35 0.36 0.38 0.37 0.36 0.36 0.38 0.38 0.34 0.33
0.34 0.31 0.34 0.27 0.16 0.14 0.14 0.13 0.14 0.13 0.10 0.07 0.07 0.07 0.08 0.07 0.07 0.07 0.06 0.05 0.05 0.05 0.06 0.07 0.08 0.08 0.11 0.19 0.26 0.38 0.40 0.36 0.37 0.38 0.39 0.38 0.37 0.37 0.36 0.36 0.36 0.34 0.34 0.32
0.40 0.40 0.37 0.31 0.23 0.20 0.20 0.18 0.15 0.14 0.10 0.07 0.05 0.06 0.07 0.07 0.07 0.08 0.08 0.06 0.05 0.05 0.06 0.08 0.09 0.10 0.13 0.19 0.26 0.37 0.37 0.37 0.38 0.40 0.40 0.39 0.36 0.33 0.33 0.33 0.33 0.33 0.31 0.34
0.38 0.42 0.44 0.41 0.29 0.27 0.24 0.18 0.15 0.14 0.11 0.08 0.06 0.06 0.06 0.06 0.08 0.10 0.10 0.08 0.07 0.06 0.08 0.11 0.12 0.13 0.14 0.18 0.23 0.30 0.35 0.36 0.38 0.38 0.37 0.36 0.37 0.34 0.31 0.31 0.33 0.37 0.40 0.42

GEFSCGP_prec_meanprecacc_246.txt.gz
Total_Precipitation_Accumulation
0.58 0.74 0.84 0.79 0.81 0.86 0.77 0.72 0.70 0.56 0.46 0.51 0.52 0.50 0.47 0.43 0.38 0.40 0.42 0.40 0.44 0.38 0.33 0.26 0.24 0.24 0.31 0.36 0.38 0.44 0.48 0.48 0.45 0.42 0.47 0.53 0.57 0.70 0.81 0.86 0.92 0.92 0.94 1.02
0.58 0.60 0.54 0.56 0.63 0.75 0.77 0.78 0.75 0.67 0.49 0.49 0.52 0.54 0.48 0.42 0.38 0.32 0.30 0.28 0.33 0.32 0.30 0.25 0.24 0.22 0.22 0.25 0.29 0.36 0.38 0.37 0.34 0.32 0.37 0.46 0.54 0.66 0.86 1.01 1.21 1.15 1.06 1.11
0.56 0.50 0.43 0.46 0.54 0.68 0.70 0.66 0.60 0.68 0.61 0.57 0.64 0.69 0.58 0.48 0.43 0.34 0.26 0.27 0.30 0.29 0.25 0.25 0.25 0.25 0.21 0.22 0.25 0.29 0.33 0.33 0.32 0.39 0.58 0.85 1.12 1.24 1.31 1.35 1.56 1.59 1.46 1.42
0.70 0.48 0.40 0.43 0.48 0.54 0.75 0.54 0.47 0.58 0.74 0.72 0.62 0.72 0.54 0.47 0.50 0.39 0.31 0.27 0.28 0.29 0.27 0.24 0.23 0.25 0.19 0.21 0.26 0.29 0.32 0.38 0.40 0.55 0.87 1.27 1.61 1.74 1.73 1.83 1.90 1.98 1.89 1.72
0.58 0.40 0.39 0.43 0.40 0.47 0.72 0.59 0.58 0.63 0.68 0.64 0.44 0.49 0.43 0.42 0.50 0.42 0.38 0.35 0.36 0.32 0.29 0.25 0.24 0.25 0.24 0.27 0.34 0.38 0.45 0.59 0.75 0.89 1.05 1.35 1.54 1.64 1.77 1.93 2.17 2.32 2.37 2.29
0.42 0.34 0.36 0.37 0.36 0.41 0.55 0.66 0.77 0.77 0.75 0.71 0.36 0.34 0.39 0.40 0.38 0.38 0.37 0.39 0.38 0.32 0.27 0.26 0.30 0.33 0.35 0.41 0.49 0.53 0.65 0.77 0.84 0.94 1.08 1.22 1.29 1.43 1.64 1.83 2.06 2.22 2.31 2.28
0.45 0.41 0.33 0.31 0.44 0.48 0.52 0.75 1.05 1.13 1.03 0.72 0.30 0.29 0.36 0.29 0.27 0.30 0.31 0.28 0.28 0.29 0.29 0.29 0.29 0.36 0.41 0.49 0.55 0.64 0.75 0.86 0.90 0.96 1.07 1.13 1.18 1.31 1.46 1.54 1.62 1.66 1.67 1.69
0.42 0.44 0.30 0.26 0.32 0.41 0.44 0.54 0.88 1.05 0.85 0.59 0.33 0.39 0.38 0.25 0.21 0.18 0.21 0.23 0.27 0.34 0.36 0.35 0.33 0.42 0.50 0.59 0.71 0.81 0.89 0.91 0.94 1.03 1.11 1.11 1.21 1.32 1.41 1.35 1.31 1.37 1.40 1.46
0.35 0.34 0.21 0.21 0.22 0.27 0.41 0.42 0.49 0.62 0.50 0.50 0.38 0.35 0.27 0.17 0.16 0.15 0.20 0.29 0.37 0.45 0.47 0.47 0.47 0.52 0.59 0.69 0.80 0.89 0.98 1.01 1.06 1.07 1.16 1.31 1.35 1.35 1.33 1.22 1.17 1.20 1.16 1.13
0.27 0.33 0.26 0.23 0.26 0.28 0.33 0.42 0.52 0.62 0.68 0.63 0.43 0.37 0.31 0.22 0.22 0.24 0.30 0.39 0.51 0.62 0.64 0.65 0.69 0.72 0.75 0.78 0.87 0.94 1.04 1.14 1.11 1.11 1.22 1.41 1.38 1.14 0.98 0.90 0.95 0.99 1.02 1.03
0.19 0.32 0.35 0.29 0.26 0.29 0.34 0.33 0.42 0.52 0.53 0.73 0.84 0.80 0.64 0.59 0.48 0.52 0.55 0.65 0.81 0.85 0.86 0.83 0.86 0.90 0.87 0.88 0.95 0.98 1.04 1.19 1.20 1.09 1.18 1.22 1.05 0.81 0.71 0.70 0.69 0.68 0.70 0.75
0.16 0.29 0.34 0.25 0.18 0.18 0.28 0.27 0.31 0.52 0.53 0.58 0.91 0.95 0.80 0.83 0.80 0.89 0.98 1.14 1.09 1.04 1.04 0.95 0.89 0.88 0.80 0.78 0.87 0.94 1.07 1.14 1.07 1.01 0.97 0.81 0.66 0.56 0.52 0.48 0.44 0.43 0.45 0.47
0.22 0.32 0.42 0.39 0.33 0.23 0.22 0.19 0.20 0.31 0.50 0.59 0.92 0.96 0.73 0.82 0.92 1.08 1.19 1.20 1.00 0.85 0.77 0.72 0.69 0.63 0.59 0.61 0.67 0.72 0.85 0.92 0.74 0.65 0.66 0.59 0.49 0.45 0.42 0.37 0.37 0.35 0.39 0.40
0.26 0.30 0.38 0.44 0.35 0.22 0.20 0.16 0.17 0.26 0.48 0.52 0.64 0.70 0.63 0.75 0.90 1.01 1.04 0.94 0.71 0.57 0.51 0.46 0.39 0.36 0.40 0.43 0.43 0.41 0.44 0.54 0.49 0.43 0.46 0.44 0.39 0.38 0.38 0.39 0.40 0.37 0.37 0.38
0.28 0.29 0.23 0.21 0.16 0.14 0.14 0.14 0.15 0.20 0.27 0.43 0.49 0.48 0.49 0.53 0.56 0.58 0.62 0.60 0.50 0.40 0.32 0.29 0.28 0.26 0.31 0.32 0.31 0.30 0.27 0.30 0.33 0.32 0.34 0.39 0.40 0.39 0.35 0.36 0.35 0.35 0.35 0.33
0.27 0.26 0.17 0.16 0.13 0.12 0.10 0.09 0.12 0.16 0.20 0.29 0.30 0.30 0.27 0.25 0.22 0.21 0.24 0.29 0.26 0.23 0.21 0.21 0.22 0.23 0.26 0.26 0.24 0.24 0.23 0.22 0.23 0.23 0.23 0.30 0.36 0.37 0.38 0.34 0.31 0.30 0.31 0.30
0.29 0.29 0.26 0.17 0.12 0.16 0.14 0.08 0.10 0.14 0.14 0.17 0.22 0.25 0.25 0.19 0.15 0.13 0.12 0.13 0.14 0.16 0.17 0.17 0.18 0.23 0.27 0.26 0.26 0.26 0.24 0.21 0.20 0.21 0.24 0.29 0.31 0.28 0.31 0.31 0.26 0.22 0.24 0.25
0.24 0.29 0.36 0.27 0.24 0.27 0.13 0.06 0.06 0.08 0.09 0.12 0.15 0.16 0.17 0.15 0.14 0.13 0.11 0.11 0.12 0.12 0.14 0.16 0.16 0.19 0.25 0.28 0.29 0.30 0.28 0.25 0.23 0.22 0.24 0.27 0.27 0.27 0.25 0.26 0.23 0.19 0.21 0.23
0.20 0.30 0.45 0.40 0.32 0.18 0.09 0.08 0.07 0.06 0.07 0.09 0.09 0.08 0.07 0.09 0.12 0.11 0.09 0.08 0.09 0.09 0.10 0.11 0.14 0.19 0.24 0.27 0.32 0.33 0.29 0.28 0.27 0.25 0.24 0.24 0.24 0.26 0.25 0.22 0.20 0.19 0.22 0.24
0.25 0.30 0.47 0.47 0.41 0.25 0.12 0.07 0.07 0.07 0.11 0.11 0.09 0.08 0.07 0.09 0.13 0.10 0.08 0.07 0.07 0.08 0.08 0.09 0.10 0.15 0.21 0.28 0.32 0.34 0.35 0.29 0.26 0.26 0.26 0.26 0.23 0.22 0.24 0.23 0.22 0.21 0.24 0.26
0.35 0.39 0.43 0.42 0.39 0.20 0.09 0.07 0.09 0.15 0.16 0.12 0.11 0.10 0.10 0.10 0.10 0.09 0.07 0.05 0.06 0.07 0.07 0.08 0.10 0.12 0.17 0.27 0.31 0.37 0.37 0.27 0.25 0.29 0.32 0.33 0.29 0.27 0.30 0.31 0.29 0.27 0.27 0.29
0.41 0.43 0.40 0.38 0.40 0.25 0.10 0.12 0.17 0.19 0.12 0.09 0.09 0.09 0.09 0.09 0.08 0.06 0.06 0.06 0.07 0.08 0.08 0.08 0.09 0.11 0.13 0.23 0.31 0.35 0.37 0.35 0.33 0.33 0.35 0.36 0.36 0.35 0.36 0.37 0.37 0.36 0.34 0.35
0.40 0.41 0.40 0.32 0.25 0.16 0.12 0.16 0.17 0.15 0.13 0.10 0.09 0.09 0.09 0.08 0.07 0.06 0.06 0.06 0.06 0.08 0.08 0.08 0.09 0.10 0.13 0.20 0.27 0.32 0.36 0.39 0.36 0.36 0.36 0.37 0.39 0.39 0.38 0.39 0.40 0.40 0.36 0.34
0.34 0.32 0.37 0.30 0.18 0.16 0.17 0.16 0.17 0.16 0.12 0.09 0.08 0.08 0.09 0.08 0.08 0.07 0.06 0.06 0.06 0.08 0.09 0.09 0.10 0.10 0.12 0.19 0.27 0.38 0.40 0.37 0.38 0.38 0.40 0.39 0.38 0.38 0.38 0.38 0.38 0.36 0.35 0.33
0.41 0.43 0.41 0.35 0.25 0.23 0.22 0.20 0.18 0.16 0.11 0.08 0.06 0.06 0.08 0.08 0.07 0.08 0.08 0.06 0.06 0.07 0.09 0.11 0.11 0.12 0.14 0.19 0.27 0.37 0.38 0.37 0.39 0.40 0.40 0.39 0.37 0.34 0.34 0.35 0.35 0.35 0.33 0.36
0.39 0.45 0.48 0.45 0.31 0.30 0.26 0.20 0.17 0.16 0.13 0.08 0.06 0.06 0.06 0.07 0.08 0.10 0.10 0.08 0.07 0.07 0.08 0.12 0.13 0.13 0.15 0.18 0.23 0.30 0.35 0.37 0.38 0.38 0.38 0.36 0.37 0.35 0.32 0.32 0.35 0.39 0.41 0.43

GEFSCGP_prec_meanprecacc_252.txt.gz
Total_Precipitation_Accumulation
0.58 0.74 0.84 0.79 0.81 0.86 0.77 0.72 0.70 0.57 0.46 0.51 0.54 0.54 0.47 0.43 0.38 0.40 0.42 0.41 0.44 0.38 0.34 0.26 0.24 0.25 0.32 0.36 0.39 0.44 0.50 0.49 0.47 0.45 0.52 0.59 0.62 0.74 0.84 0.88 0.95 0.95 0.97 1.05
0.58 0.60 0.54 0.56 0.63 0.75 0.77 0.79 0.75 0.67 0.49 0.49 0.53 0.57 0.49 0.42 0.38 0.33 0.30 0.28 0.34 0.32 0.30 0.26 0.24 0.23 0.23 0.25 0.29 0.36 0.39 0.37 0.34 0.34 0.40 0.52 0.60 0.70 0.88 1.04 1.24 1.18 1.10 1.14
0.56 0.50 0.43 0.46 0.54 0.68 0.70 0.66 0.61 0.68 0.61 0.57 0.64 0.71 0.59 0.49 0.43 0.35 0.28 0.28 0.30 0.29 0.25 0.25 0.25 0.26 0.22 0.22 0.25 0.30 0.34 0.34 0.33 0.41 0.60 0.89 1.16 1.28 1.34 1.38 1.61 1.64 1.51 1.47
0.70 0.48 0.40 0.43 0.48 0.54 0.75 0.54 0.47 0.58 0.74 0.72 0.63 0.75 0.55 0.48 0.51 0.40 0.33 0.29 0.29 0.29 0.27 0.24 0.24 0.26 0.19 0.21 0.26 0.30 0.33 0.40 0.42 0.58 0.90 1.32 1.65 1.77 1.76 1.85 1.94 2.02 1.93 1.76
0.58 0.40 0.39 0.43 0.40 0.47 0.72 0.59 0.58 0.63 0.68 0.64 0.45 0.49 0.43 0.43 0.51 0.42 0.39 0.37 0.37 0.32 0.29 0.26 0.26 0.27 0.25 0.27 0.34 0.39 0.46 0.61 0.78 0.91 1.08 1.38 1.56 1.66 1.80 1.97 2.21 2.37 2.42 2.32
0.42 0.34 0.36 0.37 0.36 0.41 0.55 0.66 0.77 0.77 0.75 0.72 0.37 0.34 0.40 0.40 0.38 0.38 0.38 0.41 0.39 0.33 0.27 0.27 0.31 0.35 0.36 0.42 0.49 0.54 0.67 0.78 0.85 0.96 1.09 1.23 1.31 1.46 1.68 1.87 2.13 2.29 2.34 2.33
0.45 0.41 0.33 0.31 0.44 0.48 0.52 0.75 1.06 1.14 1.05 0.73 0.30 0.29 0.36 0.29 0.27 0.30 0.31 0.29 0.29 0.30 0.29 0.29 0.30 0.37 0.42 0.49 0.56 0.65 0.76 0.87 0.91 0.98 1.09 1.14 1.19 1.32 1.48 1.59 1.67 1.71 1.71 1.73
0.42 0.44 0.30 0.26 0.32 0.41 0.44 0.54 0.89 1.07 0.87 0.60 0.33 0.39 0.38 0.25 0.21 0.19 0.21 0.24 0.28 0.34 0.36 0.36 0.34 0.43 0.50 0.59 0.71 0.81 0.89 0.92 0.95 1.05 1.12 1.12 1.22 1.34 1.43 1.39 1.36 1.42 1.44 1.49
0.35 0.34 0.21 0.21 0.22 0.27 0.41 0.42 0.49 0.63 0.51 0.51 0.39 0.35 0.27 0.18 0.16 0.16 0.21 0.31 0.39 0.45 0.47 0.48 0.49 0.54 0.60 0.70 0.81 0.90 0.99 1.03 1.07 1.09 1.17 1.31 1.36 1.36 1.35 1.25 1.20 1.24 1.19 1.16
0.27 0.34 0.27 0.23 0.26 0.28 0.33 0.42 0.52 0.62 0.69 0.64 0.43 0.38 0.32 0.22 0.22 0.25 0.30 0.40 0.54 0.64 0.65 0.65 0.71 0.74 0.76 0.79 0.87 0.95 1.05 1.16 1.13 1.12 1.23 1.41 1.38 1.15 1.00 0.91 0.96 1.01 1.04 1.07
0.19 0.32 0.35 0.29 0.26 0.29 0.34 0.33 0.42 0.52 0.53 0.74 0.85 0.81 0.64 0.59 0.48 0.52 0.56 0.65 0.82 0.88 0.88 0.84 0.89 0.92 0.89 0.89 0.95 0.99 1.05 1.21 1.22 1.11 1.20 1.23 1.06 0.82 0.72 0.72 0.71 0.70 0.73 0.78
0.17 0.29 0.35 0.26 0.18 0.18 0.28 0.27 0.31 0.52 0.54 0.59 0.92 0.95 0.80 0.83 0.80 0.89 0.99 1.14 1.10 1.07 1.09 0.97 0.90 0.91 0.82 0.79 0.88 0.95 1.08 1.16 1.09 1.03 0.99 0.83 0.67 0.57 0.54 0.51 0.47 0.46 0.48 0.49
0.22 0.33 0.43 0.40 0.34 0.23 0.22 0.19 0.20 0.31 0.50 0.59 0.93 0.97 0.74 0.82 0.93 1.09 1.19 1.21 1.02 0.88 0.82 0.76 0.71 0.65 0.61 0.62 0.68 0.72 0.86 0.93 0.75 0.65 0.67 0.60 0.51 0.47 0.45 0.40 0.39 0.37 0.41 0.41
0.26 0.30 0.38 0.44 0.36 0.23 0.20 0.16 0.17 0.26 0.48 0.52 0.65 0.71 0.65 0.76 0.91 1.02 1.05 0.95 0.73 0.61 0.57 0.51 0.42 0.38 0.41 0.43 0.44 0.41 0.45 0.55 0.49 0.43 0.46 0.45 0.41 0.41 0.43 0.41 0.41 0.38 0.38 0.39
0.28 0.29 0.24 0.22 0.16 0.15 0.14 0.14 0.15 0.20 0.27 0.43 0.50 0.50 0.51 0.56 0.58 0.59 0.63 0.61 0.52 0.46 0.38 0.34 0.30 0.27 0.31 0.33 0.33 0.31 0.27 0.30 0.33 0.33 0.34 0.39 0.41 0.40 0.39 0.39 0.37 0.36 0.36 0.34
0.28 0.26 0.18 0.16 0.13 0.12 0.10 0.09 0.12 0.16 0.20 0.30 0.31 0.32 0.29 0.27 0.23 0.22 0.25 0.30 0.28 0.27 0.23 0.24 0.24 0.24 0.26 0.27 0.26 0.26 0.24 0.23 0.23 0.23 0.24 0.31 0.37 0.38 0.39 0.35 0.33 0.31 0.32 0.31
0.30 0.29 0.26 0.18 0.12 0.16 0.14 0.08 0.10 0.15 0.14 0.18 0.23 0.27 0.27 0.21 0.16 0.14 0.13 0.14 0.15 0.17 0.19 0.19 0.20 0.25 0.28 0.27 0.27 0.28 0.25 0.22 0.21 0.21 0.24 0.29 0.31 0.29 0.32 0.33 0.28 0.23 0.26 0.26
0.25 0.30 0.37 0.27 0.24 0.27 0.13 0.06 0.07 0.09 0.09 0.13 0.16 0.17 0.18 0.16 0.16 0.14 0.12 0.12 0.13 0.13 0.15 0.18 0.19 0.21 0.27 0.28 0.30 0.31 0.29 0.26 0.23 0.23 0.24 0.27 0.28 0.27 0.26 0.27 0.24 0.21 0.24 0.27
0.20 0.30 0.45 0.40 0.33 0.18 0.10 0.08 0.07 0.07 0.08 0.10 0.10 0.08 0.08 0.09 0.14 0.12 0.10 0.09 0.09 0.10 0.11 0.14 0.17 0.22 0.26 0.28 0.33 0.33 0.30 0.29 0.28 0.26 0.24 0.24 0.25 0.27 0.27 0.23 0.21 0.20 0.24 0.27
0.25 0.31 0.47 0.47 0.42 0.26 0.12 0.07 0.07 0.08 0.12 0.12 0.10 0.09 0.08 0.09 0.14 0.12 0.09 0.08 0.07 0.08 0.09 0.10 0.13 0.17 0.22 0.29 0.32 0.35 0.35 0.30 0.27 0.27 0.27 0.26 0.24 0.22 0.25 0.24 0.24 0.22 0.25 0.28
0.35 0.39 0.44 0.43 0.41 0.21 0.09 0.07 0.10 0.17 0.17 0.13 0.12 0.10 0.11 0.11 0.11 0.10 0.07 0.06 0.07 0.08 0.08 0.09 0.12 0.14 0.19 0.28 0.32 0.38 0.38 0.28 0.26 0.31 0.34 0.33 0.29 0.27 0.31 0.32 0.31 0.28 0.28 0.31
0.42 0.44 0.40 0.39 0.42 0.26 0.10 0.12 0.19 0.20 0.13 0.10 0.10 0.10 0.10 0.09 0.08 0.07 0.07 0.07 0.08 0.09 0.10 0.10 0.11 0.12 0.15 0.24 0.32 0.36 0.39 0.36 0.34 0.34 0.36 0.37 0.37 0.36 0.37 0.39 0.39 0.38 0.36 0.36
0.40 0.42 0.42 0.34 0.26 0.16 0.13 0.16 0.18 0.16 0.14 0.11 0.10 0.10 0.10 0.09 0.08 0.07 0.07 0.07 0.08 0.09 0.10 0.11 0.12 0.12 0.14 0.22 0.27 0.33 0.37 0.41 0.38 0.38 0.38 0.39 0.41 0.41 0.39 0.40 0.42 0.42 0.38 0.37
0.35 0.33 0.39 0.32 0.19 0.17 0.17 0.17 0.18 0.17 0.13 0.10 0.09 0.09 0.09 0.09 0.08 0.08 0.07 0.06 0.08 0.09 0.11 0.13 0.13 0.12 0.14 0.21 0.29 0.40 0.42 0.40 0.41 0.42 0.42 0.41 0.41 0.40 0.39 0.39 0.39 0.38 0.38 0.35
0.42 0.45 0.43 0.37 0.26 0.23 0.23 0.21 0.19 0.17 0.12 0.08 0.07 0.07 0.08 0.08 0.07 0.09 0.09 0.07 0.07 0.09 0.11 0.13 0.14 0.13 0.16 0.21 0.30 0.41 0.41 0.41 0.43 0.45 0.45 0.44 0.41 0.38 0.38 0.37 0.37 0.37 0.36 0.39
0.40 0.48 0.50 0.46 0.32 0.31 0.27 0.21 0.18 0.18 0.14 0.10 0.07 0.06 0.06 0.07 0.08 0.10 0.10 0.08 0.08 0.08 0.10 0.14 0.14 0.14 0.16 0.20 0.25 0.32 0.37 0.39 0.41 0.43 0.44 0.43 0.44 0.41 0.38 0.37 0.37 0.41 0.43 0.46

GEFSCGP_prec_meanprecacc_258.txt.gz
Total_Precipitation_Accumulation
0.59 0.74 0.84 0.79 0.81 0.86 0.77 0.73 0.70 0.59 0.48 0.53 0.55 0.56 0.49 0.45 0.40 0.40 0.43 0.41 0.44 0.38 0.34 0.27 0.25 0.26 0.33 0.38 0.40 0.46 0.52 0.51 0.48 0.46 0.53 0.61 0.64 0.74 0.85 0.90 0.97 0.98 1.00 1.09
0.58 0.61 0.55 0.56 0.63 0.75 0.78 0.79 0.75 0.67 0.50 0.50 0.54 0.59 0.50 0.44 0.40 0.34 0.31 0.29 0.34 0.33 0.31 0.27 0.26 0.24 0.24 0.27 0.31 0.38 0.41 0.40 0.36 0.35 0.42 0.53 0.61 0.71 0.89 1.06 1.28 1.21 1.12 1.16
0.56 0.50 0.43 0.46 0.54 0.68 0.70 0.67 0.61 0.69 0.61 0.58 0.66 0.73 0.60 0.51 0.46 0.37 0.29 0.29 0.32 0.31 0.27 0.26 0.26 0.27 0.23 0.23 0.28 0.33 0.35 0.36 0.36 0.43 0.62 0.91 1.17 1.30 1.36 1.40 1.63 1.66 1.52 1.49
0.70 0.48 0.40 0.43 0.48 0.54 0.75 0.54 0.47 0.59 0.75 0.73 0.63 0.78 0.57 0.50 0.54 0.43 0.35 0.31 0.31 0.31 0.28 0.26 0.26 0.29 0.22 0.24 0.29 0.33 0.35 0.43 0.44 0.59 0.92 1.34 1.65 1.78 1.77 1.86 1.95 2.04 1.94 1.79
0.58 0.40 0.39 0.43 0.40 0.47 0.73 0.59 0.58 0.63 0.68 0.65 0.45 0.51 0.45 0.45 0.54 0.44 0.40 0.40 0.40 0.34 0.32 0.30 0.30 0.31 0.28 0.30 0.36 0.41 0.48 0.66 0.81 0.93 1.09 1.40 1.58 1.68 1.81 1.98 2.23 2.40 2.45 2.37
0.42 0.34 0.36 0.37 0.36 0.41 0.55 0.66 0.77 0.78 0.76 0.73 0.37 0.35 0.41 0.42 0.40 0.39 0.39 0.43 0.42 0.36 0.30 0.30 0.35 0.40 0.40 0.44 0.52 0.56 0.69 0.83 0.90 1.00 1.12 1.26 1.33 1.48 1.70 1.89 2.16 2.33 2.37 2.36
0.46 0.41 0.33 0.31 0.44 0.48 0.52 0.75 1.06 1.15 1.06 0.74 0.32 0.31 0.37 0.30 0.27 0.30 0.32 0.30 0.31 0.32 0.33 0.33 0.34 0.41 0.45 0.52 0.58 0.67 0.79 0.90 0.94 1.02 1.13 1.18 1.23 1.35 1.51 1.62 1.70 1.75 1.73 1.75
0.43 0.44 0.31 0.26 0.32 0.41 0.44 0.54 0.89 1.07 0.88 0.61 0.35 0.42 0.40 0.26 0.21 0.19 0.22 0.25 0.29 0.37 0.40 0.41 0.39 0.48 0.55 0.63 0.74 0.84 0.92 0.95 0.98 1.09 1.17 1.17 1.26 1.38 1.47 1.43 1.40 1.45 1.47 1.52
0.36 0.34 0.21 0.21 0.22 0.27 0.41 0.42 0.49 0.63 0.51 0.52 0.41 0.37 0.29 0.18 0.17 0.17 0.22 0.32 0.41 0.48 0.50 0.52 0.54 0.59 0.66 0.74 0.83 0.92 1.01 1.05 1.09 1.11 1.20 1.35 1.41 1.40 1.39 1.28 1.23 1.28 1.23 1.20
0.27 0.34 0.27 0.23 0.26 0.28 0.33 0.42 0.52 0.62 0.69 0.64 0.44 0.39 0.35 0.24 0.23 0.26 0.32 0.41 0.55 0.65 0.67 0.69 0.75 0.79 0.81 0.83 0.91 0.98 1.08 1.18 1.15 1.14 1.25 1.44 1.42 1.19 1.04 0.95 1.00 1.05 1.09 1.12
0.19 0.32 0.36 0.29 0.26 0.29 0.34 0.33 0.42 0.52 0.54 0.75 0.85 0.81 0.64 0.60 0.49 0.53 0.57 0.66 0.83 0.89 0.91 0.87 0.92 0.96 0.93 0.94 1.00 1.03 1.09 1.24 1.24 1.13 1.22 1.26 1.08 0.85 0.76 0.75 0.75 0.74 0.76 0.82
0.17 0.29 0.35 0.26 0.18 0.18 0.28 0.27 0.31 0.52 0.54 0.59 0.92 0.95 0.80 0.83 0.81 0.90 1.00 1.15 1.11 1.09 1.11 1.01 0.94 0.96 0.87 0.84 0.93 1.00 1.12 1.19 1.11 1.05 1.00 0.85 0.69 0.59 0.58 0.55 0.52 0.50 0.52 0.54
0.23 0.33 0.44 0.40 0.34 0.23 0.22 0.19 0.20 0.31 0.50 0.59 0.93 0.97 0.74 0.83 0.94 1.10 1.21 1.23 1.04 0.91 0.84 0.79 0.77 0.70 0.66 0.67 0.72 0.76 0.89 0.95 0.76 0.67 0.68 0.62 0.53 0.49 0.47 0.44 0.43 0.42 0.44 0.45
0.27 0.31 0.38 0.45 0.36 0.23 0.20 0.16 0.17 0.27 0.48 0.52 0.65 0.71 0.65 0.77 0.93 1.03 1.07 0.97 0.75 0.64 0.60 0.55 0.47 0.43 0.46 0.48 0.49 0.45 0.48 0.57 0.51 0.45 0.48 0.46 0.43 0.44 0.46 0.45 0.45 0.42 0.40 0.41
0.29 0.30 0.24 0.22 0.17 0.15 0.14 0.14 0.15 0.20 0.27 0.43 0.50 0.50 0.51 0.56 0.59 0.61 0.64 0.63 0.53 0.48 0.40 0.37 0.35 0.33 0.37 0.38 0.38 0.35 0.31 0.33 0.35 0.34 0.35 0.41 0.43 0.43 0.41 0.42 0.40 0.40 0.39 0.36
0.29 0.27 0.18 0.16 0.14 0.13 0.11 0.09 0.12 0.16 0.21 0.30 0.32 0.32 0.29 0.28 0.24 0.23 0.26 0.31 0.29 0.27 0.24 0.26 0.28 0.30 0.32 0.32 0.31 0.31 0.28 0.26 0.25 0.24 0.25 0.32 0.38 0.39 0.41 0.37 0.35 0.34 0.34 0.34
0.30 0.29 0.26 0.18 0.12 0.17 0.15 0.08 0.10 0.15 0.15 0.18 0.24 0.27 0.28 0.22 0.17 0.14 0.14 0.15 0.16 0.18 0.20 0.21 0.24 0.29 0.34 0.32 0.32 0.32 0.30 0.25 0.23 0.22 0.24 0.31 0.33 0.30 0.34 0.34 0.30 0.26 0.28 0.30
0.25 0.30 0.37 0.28 0.24 0.28 0.14 0.06 0.07 0.09 0.10 0.14 0.16 0.18 0.20 0.17 0.17 0.15 0.12 0.12 0.13 0.14 0.16 0.19 0.22 0.26 0.33 0.34 0.35 0.35 0.33 0.30 0.25 0.24 0.25 0.29 0.29 0.29 0.27 0.29 0.26 0.23 0.26 0.29
0.20 0.31 0.46 0.41 0.33 0.19 0.10 0.08 0.07 0.07 0.08 0.11 0.10 0.09 0.10 0.11 0.15 0.13 0.11 0.10 0.10 0.11 0.12 0.14 0.19 0.27 0.33 0.36 0.39 0.40 0.35 0.32 0.30 0.28 0.26 0.25 0.26 0.28 0.29 0.25 0.24 0.22 0.26 0.29
0.25 0.31 0.48 0.48 0.44 0.27 0.13 0.07 0.07 0.08 0.13 0.12 0.11 0.09 0.09 0.11 0.15 0.12 0.10 0.08 0.08 0.09 0.10 0.11 0.15 0.22 0.29 0.36 0.38 0.40 0.40 0.32 0.28 0.28 0.28 0.28 0.26 0.24 0.26 0.25 0.26 0.25 0.27 0.30
0.35 0.39 0.44 0.43 0.42 0.22 0.09 0.07 0.10 0.18 0.19 0.13 0.12 0.11 0.12 0.12 0.12 0.10 0.08 0.06 0.07 0.08 0.09 0.11 0.14 0.20 0.25 0.34 0.36 0.41 0.41 0.31 0.28 0.32 0.35 0.35 0.32 0.30 0.33 0.34 0.33 0.31 0.30 0.33
0.42 0.44 0.41 0.40 0.43 0.26 0.10 0.12 0.19 0.21 0.14 0.10 0.10 0.10 0.11 0.10 0.10 0.08 0.08 0.07 0.08 0.09 0.11 0.12 0.14 0.19 0.21 0.29 0.35 0.38 0.40 0.38 0.36 0.36 0.37 0.38 0.38 0.38 0.40 0.42 0.42 0.41 0.39 0.38
0.40 0.43 0.43 0.35 0.27 0.17 0.13 0.16 0.18 0.16 0.14 0.11 0.11 0.11 0.10 0.10 0.09 0.08 0.08 0.08 0.09 0.10 0.11 0.13 0.15 0.19 0.21 0.27 0.30 0.33 0.38 0.42 0.40 0.39 0.39 0.40 0.42 0.42 0.41 0.42 0.44 0.45 0.42 0.40
0.35 0.34 0.40 0.34 0.20 0.17 0.17 0.17 0.18 0.17 0.13 0.10 0.09 0.09 0.10 0.10 0.10 0.09 0.08 0.07 0.09 0.10 0.11 0.14 0.17 0.19 0.21 0.26 0.31 0.41 0.42 0.40 0.42 0.43 0.43 0.42 0.41 0.41 0.41 0.41 0.41 0.40 0.40 0.38
0.43 0.46 0.45 0.39 0.27 0.24 0.23 0.21 0.19 0.18 0.12 0.09 0.07 0.07 0.09 0.09 0.09 0.10 0.10 0.08 0.09 0.10 0.12 0.14 0.18 0.20 0.21 0.25 0.31 0.41 0.42 0.41 0.44 0.47 0.46 0.45 0.42 0.39 0.39 0.38 0.38 0.38 0.38 0.41
0.41 0.50 0.53 0.48 0.33 0.31 0.27 0.21 0.18 0.18 0.15 0.10 0.07 0.07 0.07 0.08 0.09 0.12 0.11 0.10 0.09 0.09 0.11 0.15 0.17 0.18 0.20 0.23 0.25 0.33 0.38 0.40 0.43 0.45 0.45 0.44 0.46 0.43 0.40 0.39 0.41 0.44 0.46 0.49

GEFSCGP_prec_meanprecacc_264.txt.gz
Total_Precipitation_Accumulation
0.59 0.74 0.84 0.79 0.81 0.86 0.78 0.73 0.71 0.59 0.49 0.53 0.56 0.56 0.50 0.47 0.42 0.42 0.45 0.43 0.46 0.39 0.35 0.28 0.26 0.26 0.34 0.39 0.42 0.48 0.54 0.53 0.49 0.47 0.54 0.61 0.64 0.75 0.86 0.92 0.98 1.00 1.03 1.12
0.58 0.61 0.55 0.56 0.63 0.75 0.78 0.80 0.76 0.68 0.51 0.51 0.55 0.59 0.51 0.46 0.43 0.36 0.33 0.31 0.36 0.34 0.33 0.28 0.27 0.26 0.26 0.29 0.33 0.41 0.44 0.43 0.38 0.37 0.43 0.53 0.62 0.71 0.90 1.08 1.30 1.23 1.15 1.19
0.56 0.50 0.43 0.46 0.54 0.68 0.71 0.67 0.61 0.69 0.62 0.58 0.66 0.73 0.61 0.52 0.47 0.39 0.31 0.30 0.33 0.32 0.28 0.28 0.29 0.30 0.25 0.25 0.30 0.37 0.39 0.40 0.39 0.45 0.63 0.92 1.18 1.31 1.37 1.42 1.66 1.69 1.56 1.52
0.70 0.48 0.40 0.43 0.48 0.54 0.75 0.54 0.48 0.59 0.75 0.73 0.64 0.79 0.57 0.50 0.55 0.44 0.36 0.32 0.32 0.32 0.29 0.27 0.28 0.31 0.24 0.26 0.32 0.35 0.38 0.47 0.48 0.62 0.94 1.36 1.67 1.80 1.78 1.87 1.96 2.06 1.99 1.83
0.58 0.40 0.39 0.43 0.40 0.47 0.73 0.60 0.59 0.64 0.69 0.65 0.46 0.52 0.46 0.46 0.55 0.45 0.42 0.41 0.41 0.35 0.33 0.31 0.31 0.33 0.30 0.33 0.39 0.44 0.50 0.68 0.85 0.96 1.13 1.44 1.60 1.70 1.83 2.00 2.24 2.42 2.47 2.40
0.42 0.34 0.36 0.37 0.36 0.42 0.55 0.67 0.78 0.78 0.76 0.73 0.38 0.36 0.42 0.43 0.42 0.40 0.41 0.44 0.43 0.36 0.31 0.32 0.37 0.42 0.42 0.48 0.55 0.59 0.72 0.85 0.93 1.04 1.15 1.28 1.35 1.51 1.73 1.93 2.19 2.36 2.39 2.38
0.46 0.41 0.33 0.31 0.44 0.48 0.53 0.75 1.07 1.15 1.06 0.75 0.32 0.32 0.39 0.32 0.28 0.31 0.34 0.32 0.31 0.33 0.33 0.35 0.37 0.44 0.48 0.55 0.61 0.70 0.81 0.93 0.97 1.06 1.16 1.20 1.26 1.39 1.56 1.67 1.74 1.79 1.77 1.79
0.43 0.45 0.31 0.26 0.32 0.41 0.44 0.54 0.89 1.08 0.89 0.62 0.36 0.42 0.41 0.27 0.22 0.19 0.23 0.26 0.30 0.38 0.41 0.42 0.41 0.51 0.59 0.67 0.78 0.87 0.94 0.97 1.01 1.11 1.20 1.19 1.28 1.40 1.51 1.48 1.44 1.50 1.52 1.58
0.36 0.34 0.21 0.22 0.22 0.27 0.41 0.43 0.49 0.63 0.52 0.53 0.42 0.37 0.29 0.18 0.17 0.17 0.22 0.33 0.41 0.48 0.50 0.53 0.55 0.62 0.71 0.78 0.87 0.95 1.03 1.08 1.12 1.14 1.22 1.36 1.42 1.42 1.41 1.31 1.27 1.32 1.28 1.25
0.27 0.34 0.27 0.24 0.26 0.28 0.34 0.42 0.52 0.62 0.69 0.65 0.44 0.39 0.35 0.24 0.23 0.26 0.32 0.41 0.55 0.66 0.68 0.70 0.76 0.80 0.84 0.87 0.95 1.03 1.13 1.23 1.20 1.18 1.28 1.46 1.44 1.21 1.06 0.97 1.02 1.07 1.13 1.17
0.20 0.33 0.36 0.30 0.26 0.29 0.34 0.34 0.42 0.52 0.54 0.75 0.85 0.81 0.64 0.60 0.49 0.53 0.57 0.66 0.84 0.89 0.91 0.88 0.92 0.97 0.95 0.97 1.05 1.08 1.15 1.30 1.29 1.18 1.26 1.28 1.10 0.87 0.78 0.79 0.78 0.77 0.80 0.86
0.17 0.30 0.36 0.26 0.18 0.18 0.28 0.28 0.31 0.52 0.54 0.59 0.92 0.95 0.81 0.84 0.81 0.91 1.00 1.16 1.12 1.09 1.12 1.02 0.96 0.97 0.89 0.87 0.97 1.05 1.16 1.23 1.15 1.08 1.04 0.88 0.72 0.62 0.60 0.58 0.55 0.53 0.55 0.57
0.24 0.34 0.44 0.41 0.34 0.23 0.23 0.19 0.20 0.31 0.50 0.59 0.93 0.97 0.74 0.83 0.94 1.10 1.21 1.23 1.05 0.92 0.85 0.80 0.79 0.73 0.68 0.70 0.75 0.79 0.93 0.99 0.80 0.70 0.72 0.65 0.56 0.52 0.49 0.46 0.45 0.44 0.47 0.48
0.27 0.31 0.39 0.45 0.36 0.23 0.20 0.16 0.17 0.27 0.48 0.52 0.65 0.71 0.65 0.77 0.93 1.03 1.07 0.97 0.76 0.64 0.60 0.56 0.49 0.45 0.49 0.51 0.51 0.48 0.51 0.62 0.55 0.49 0.51 0.49 0.46 0.47 0.48 0.48 0.47 0.44 0.43 0.44
0.29 0.30 0.24 0.22 0.17 0.15 0.14 0.14 0.16 0.20 0.27 0.43 0.50 0.50 0.51 0.56 0.59 0.61 0.64 0.63 0.54 0.49 0.41 0.37 0.36 0.35 0.39 0.40 0.40 0.38 0.34 0.37 0.40 0.39 0.39 0.44 0.46 0.46 0.45 0.46 0.44 0.42 0.41 0.39
0.29 0.27 0.18 0.16 0.14 0.13 0.11 0.09 0.12 0.16 0.21 0.30 0.32 0.32 0.30 0.28 0.25 0.23 0.26 0.31 0.29 0.28 0.25 0.26 0.29 0.31 0.35 0.35 0.33 0.33 0.31 0.29 0.29 0.29 0.29 0.36 0.41 0.42 0.44 0.41 0.38 0.37 0.37 0.36
0.30 0.29 0.26 0.18 0.12 0.17 0.15 0.08 0.10 0.15 0.15 0.18 0.24 0.27 0.28 0.22 0.17 0.15 0.14 0.15 0.16 0.18 0.20 0.22 0.24 0.30 0.35 0.34 0.34 0.34 0.32 0.28 0.27 0.27 0.28 0.33 0.35 0.33 0.36 0.38 0.32 0.27 0.30 0.32
0.25 0.30 0.37 0.28 0.25 0.28 0.14 0.07 0.07 0.09 0.10 0.14 0.16 0.18 0.20 0.17 0.17 0.15 0.13 0.13 0.13 0.14 0.16 0.20 0.22 0.27 0.33 0.35 0.36 0.36 0.35 0.32 0.29 0.28 0.29 0.31 0.32 0.31 0.29 0.31 0.28 0.24 0.27 0.31
0.20 0.31 0.46 0.41 0.34 0.19 0.10 0.08 0.08 0.07 0.09 0.11 0.10 0.09 0.10 0.11 0.15 0.13 0.11 0.10 0.10 0.11 0.12 0.14 0.19 0.27 0.33 0.36 0.40 0.41 0.37 0.35 0.34 0.32 0.30 0.29 0.30 0.31 0.31 0.26 0.25 0.24 0.27 0.31
0.26 0.31 0.48 0.49 0.44 0.27 0.13 0.07 0.07 0.09 0.14 0.13 0.11 0.09 0.10 0.11 0.15 0.13 0.11 0.09 0.08 0.09 0.10 0.12 0.15 0.23 0.30 0.37 0.39 0.41 0.42 0.35 0.32 0.32 0.31 0.31 0.29 0.27 0.28 0.27 0.27 0.26 0.29 0.32
0.35 0.40 0.44 0.43 0.42 0.22 0.10 0.07 0.10 0.19 0.20 0.14 0.12 0.11 0.12 0.13 0.13 0.11 0.08 0.07 0.08 0.08 0.10 0.11 0.15 0.21 0.26 0.34 0.37 0.42 0.43 0.33 0.31 0.36 0.38 0.38 0.33 0.32 0.35 0.36 0.34 0.33 0.33 0.36
0.42 0.45 0.41 0.41 0.44 0.28 0.11 0.13 0.19 0.22 0.15 0.11 0.11 0.11 0.11 0.11 0.10 0.09 0.08 0.08 0.09 0.09 0.11 0.12 0.14 0.19 0.23 0.30 0.36 0.39 0.42 0.39 0.39 0.39 0.40 0.40 0.39 0.38 0.41 0.44 0.44 0.43 0.41 0.41
0.41 0.43 0.43 0.36 0.28 0.18 0.14 0.17 0.19 0.17 0.15 0.11 0.11 0.11 0.10 0.10 0.10 0.09 0.09 0.08 0.09 0.10 0.11 0.13 0.15 0.19 0.22 0.29 0.32 0.35 0.40 0.43 0.42 0.41 0.41 0.41 0.43 0.43 0.41 0.43 0.46 0.47 0.44 0.42
0.35 0.34 0.40 0.35 0.21 0.18 0.18 0.17 0.19 0.17 0.14 0.10 0.10 0.10 0.10 0.10 0.11 0.10 0.09 0.08 0.09 0.11 0.12 0.14 0.17 0.19 0.21 0.28 0.34 0.43 0.44 0.41 0.44 0.45 0.45 0.43 0.42 0.42 0.41 0.42 0.42 0.41 0.41 0.40
0.43 0.47 0.46 0.40 0.28 0.25 0.24 0.21 0.20 0.18 0.13 0.09 0.07 0.08 0.09 0.10 0.10 0.11 0.11 0.09 0.09 0.11 0.12 0.15 0.18 0.20 0.22 0.28 0.34 0.43 0.43 0.43 0.46 0.49 0.48 0.46 0.42 0.39 0.39 0.39 0.39 0.39 0.39 0.43
0.41 0.50 0.54 0.49 0.34 0.32 0.27 0.21 0.19 0.18 0.15 0.10 0.08 0.07 0.07 0.08 0.10 0.12 0.12 0.10 0.09 0.10 0.12 0.15 0.17 0.19 0.21 0.25 0.28 0.35 0.39 0.41 0.44 0.47 0.47 0.45 0.46 0.43 0.40 0.39 0.41 0.44 0.46 0.50

GEFSCGP_prec_meanprecacc_270.txt.gz
Total_Precipitation_Accumulation
0.59 0.74 0.84 0.79 0.81 0.87 0.78 0.74 0.71 0.60 0.49 0.54 0.56 0.56 0.50 0.47 0.43 0.43 0.45 0.44 0.46 0.40 0.36 0.28 0.26 0.28 0.36 0.41 0.43 0.49 0.56 0.55 0.51 0.48 0.56 0.64 0.66 0.76 0.87 0.94 1.01 1.02 1.05 1.15
0.58 0.61 0.55 0.57 0.63 0.76 0.78 0.80 0.76 0.68 0.51 0.51 0.55 0.59 0.51 0.46 0.43 0.37 0.33 0.31 0.36 0.35 0.34 0.29 0.28 0.27 0.27 0.31 0.35 0.42 0.45 0.44 0.40 0.38 0.45 0.56 0.64 0.73 0.92 1.10 1.32 1.25 1.17 1.22
0.56 0.51 0.43 0.47 0.54 0.68 0.71 0.67 0.61 0.69 0.62 0.59 0.67 0.74 0.61 0.52 0.48 0.39 0.31 0.31 0.33 0.32 0.28 0.28 0.29 0.31 0.26 0.27 0.32 0.38 0.40 0.41 0.40 0.47 0.65 0.94 1.20 1.33 1.39 1.45 1.69 1.72 1.59 1.55
0.70 0.48 0.40 0.43 0.48 0.55 0.75 0.55 0.48 0.60 0.76 0.74 0.65 0.79 0.57 0.51 0.56 0.44 0.36 0.32 0.32 0.32 0.30 0.28 0.28 0.32 0.25 0.27 0.33 0.37 0.40 0.47 0.49 0.63 0.96 1.38 1.71 1.83 1.81 1.89 1.98 2.08 2.01 1.85
0.58 0.40 0.39 0.43 0.40 0.47 0.73 0.60 0.59 0.65 0.70 0.66 0.46 0.53 0.46 0.46 0.56 0.46 0.42 0.41 0.41 0.35 0.33 0.31 0.32 0.34 0.31 0.34 0.41 0.46 0.52 0.70 0.86 0.97 1.15 1.47 1.64 1.73 1.86 2.02 2.26 2.44 2.49 2.42
0.42 0.34 0.36 0.37 0.36 0.42 0.55 0.67 0.79 0.79 0.77 0.74 0.38 0.37 0.43 0.43 0.42 0.41 0.41 0.44 0.43 0.37 0.32 0.32 0.38 0.43 0.43 0.49 0.56 0.60 0.73 0.87 0.95 1.05 1.17 1.29 1.38 1.54 1.75 1.94 2.20 2.37 2.41 2.41
0.46 0.41 0.33 0.31 0.44 0.48 0.53 0.76 1.08 1.16 1.07 0.75 0.33 0.32 0.40 0.32 0.28 0.32 0.34 0.32 0.32 0.33 0.34 0.35 0.37 0.44 0.48 0.56 0.62 0.71 0.83 0.95 0.99 1.08 1.18 1.22 1.27 1.41 1.58 1.69 1.77 1.81 1.80 1.82
0.43 0.45 0.31 0.26 0.32 0.41 0.44 0.54 0.89 1.08 0.89 0.62 0.36 0.43 0.41 0.27 0.22 0.19 0.23 0.26 0.30 0.38 0.41 0.42 0.41 0.52 0.60 0.68 0.79 0.88 0.95 0.99 1.03 1.13 1.21 1.20 1.29 1.41 1.52 1.50 1.46 1.52 1.55 1.61
0.36 0.34 0.21 0.22 0.23 0.27 0.41 0.43 0.50 0.63 0.52 0.53 0.42 0.37 0.29 0.18 0.17 0.17 0.22 0.33 0.41 0.48 0.51 0.53 0.56 0.62 0.71 0.79 0.88 0.96 1.05 1.10 1.14 1.15 1.23 1.38 1.43 1.42 1.41 1.32 1.28 1.34 1.30 1.27
0.27 0.34 0.27 0.24 0.26 0.28 0.34 0.43 0.52 0.62 0.69 0.65 0.44 0.39 0.35 0.24 0.23 0.26 0.32 0.41 0.55 0.66 0.68 0.70 0.76 0.80 0.85 0.88 0.97 1.05 1.14 1.25 1.22 1.20 1.29 1.48 1.45 1.22 1.07 0.98 1.03 1.08 1.14 1.18
0.20 0.33 0.36 0.30 0.27 0.29 0.35 0.34 0.43 0.53 0.54 0.75 0.86 0.81 0.64 0.60 0.49 0.53 0.57 0.66 0.84 0.89 0.91 0.88 0.93 0.98 0.96 0.98 1.07 1.10 1.16 1.32 1.31 1.19 1.27 1.30 1.12 0.88 0.79 0.80 0.79 0.79 0.81 0.87
0.18 0.30 0.36 0.26 0.18 0.18 0.28 0.28 0.31 0.53 0.54 0.59 0.92 0.96 0.81 0.84 0.81 0.91 1.00 1.16 1.12 1.09 1.12 1.03 0.97 0.98 0.90 0.89 0.99 1.07 1.18 1.25 1.16 1.10 1.06 0.90 0.73 0.63 0.60 0.58 0.56 0.54 0.56 0.58
0.24 0.34 0.45 0.41 0.35 0.24 0.23 0.19 0.21 0.31 0.50 0.60 0.93 0.97 0.74 0.83 0.94 1.10 1.21 1.23 1.05 0.92 0.85 0.81 0.80 0.74 0.69 0.71 0.77 0.82 0.95 1.01 0.83 0.74 0.74 0.66 0.57 0.53 0.50 0.47 0.47 0.46 0.49 0.50
0.28 0.31 0.39 0.45 0.36 0.23 0.20 0.16 0.17 0.27 0.48 0.52 0.65 0.71 0.65 0.77 0.93 1.03 1.07 0.97 0.76 0.65 0.61 0.56 0.49 0.46 0.50 0.52 0.52 0.49 0.53 0.64 0.57 0.51 0.55 0.52 0.47 0.48 0.49 0.49 0.49 0.46 0.45 0.47
0.30 0.30 0.24 0.22 0.17 0.15 0.14 0.14 0.16 0.20 0.27 0.43 0.50 0.50 0.51 0.56 0.59 0.61 0.64 0.63 0.54 0.49 0.41 0.38 0.37 0.35 0.40 0.41 0.41 0.39 0.36 0.39 0.42 0.41 0.42 0.48 0.48 0.48 0.47 0.48 0.46 0.45 0.43 0.42
0.29 0.27 0.18 0.17 0.14 0.13 0.11 0.09 0.12 0.16 0.21 0.30 0.32 0.32 0.30 0.28 0.25 0.23 0.26 0.31 0.30 0.28 0.25 0.26 0.29 0.31 0.35 0.35 0.34 0.34 0.32 0.30 0.31 0.31 0.31 0.39 0.45 0.45 0.47 0.44 0.41 0.40 0.40 0.39
0.30 0.30 0.27 0.18 0.13 0.17 0.15 0.08 0.10 0.15 0.15 0.18 0.24 0.27 0.28 0.22 0.17 0.15 0.14 0.15 0.16 0.18 0.20 0.22 0.25 0.31 0.35 0.34 0.34 0.35 0.33 0.29 0.28 0.29 0.31 0.36 0.38 0.36 0.40 0.41 0.35 0.30 0.34 0.35
0.25 0.30 0.37 0.28 0.25 0.28 0.14 0.07 0.07 0.09 0.10 0.14 0.17 0.18 0.21 0.18 0.17 0.15 0.13 0.13 0.14 0.15 0.16 0.20 0.23 0.27 0.34 0.36 0.36 0.37 0.36 0.34 0.31 0.30 0.30 0.34 0.34 0.34 0.32 0.35 0.31 0.27 0.30 0.34
0.21 0.31 0.46 0.42 0.34 0.19 0.10 0.08 0.08 0.08 0.09 0.12 0.11 0.10 0.10 0.11 0.15 0.13 0.11 0.10 0.10 0.11 0.12 0.15 0.20 0.28 0.34 0.37 0.41 0.43 0.38 0.36 0.35 0.33 0.31 0.30 0.31 0.33 0.33 0.28 0.27 0.26 0.30 0.33
0.26 0.31 0.48 0.49 0.45 0.27 0.13 0.07 0.07 0.10 0.15 0.14 0.11 0.10 0.10 0.12 0.16 0.14 0.11 0.09 0.09 0.09 0.10 0.13 0.16 0.24 0.31 0.37 0.40 0.43 0.44 0.36 0.32 0.32 0.32 0.33 0.31 0.28 0.30 0.29 0.28 0.28 0.31 0.34
0.35 0.40 0.44 0.44 0.43 0.22 0.10 0.07 0.10 0.20 0.21 0.15 0.13 0.11 0.12 0.13 0.13 0.11 0.09 0.07 0.08 0.09 0.10 0.11 0.16 0.22 0.28 0.36 0.38 0.44 0.45 0.34 0.32 0.37 0.40 0.39 0.35 0.33 0.37 0.39 0.36 0.35 0.35 0.37
0.43 0.46 0.42 0.41 0.44 0.28 0.11 0.13 0.20 0.22 0.15 0.11 0.11 0.11 0.11 0.11 0.11 0.09 0.09 0.08 0.09 0.10 0.11 0.12 0.15 0.20 0.23 0.31 0.38 0.41 0.43 0.41 0.40 0.40 0.41 0.41 0.41 0.40 0.43 0.47 0.46 0.46 0.44 0.43
0.41 0.44 0.44 0.37 0.29 0.18 0.14 0.17 0.19 0.17 0.15 0.12 0.11 0.11 0.10 0.10 0.10 0.09 0.09 0.08 0.09 0.10 0.11 0.13 0.16 0.20 0.22 0.29 0.33 0.37 0.41 0.45 0.43 0.42 0.42 0.43 0.45 0.45 0.43 0.45 0.49 0.49 0.46 0.44
0.35 0.34 0.41 0.35 0.22 0.18 0.18 0.18 0.19 0.18 0.14 0.11 0.10 0.10 0.11 0.10 0.11 0.10 0.09 0.08 0.10 0.12 0.13 0.15 0.18 0.20 0.22 0.29 0.35 0.45 0.47 0.44 0.46 0.47 0.47 0.45 0.44 0.43 0.43 0.43 0.44 0.43 0.43 0.42
0.43 0.47 0.46 0.40 0.28 0.25 0.24 0.22 0.20 0.18 0.13 0.09 0.08 0.08 0.10 0.10 0.10 0.12 0.11 0.10 0.10 0.11 0.13 0.16 0.19 0.22 0.24 0.29 0.36 0.45 0.45 0.44 0.47 0.52 0.51 0.48 0.44 0.40 0.41 0.40 0.40 0.41 0.41 0.44
0.41 0.50 0.54 0.49 0.34 0.32 0.28 0.22 0.19 0.19 0.15 0.10 0.08 0.07 0.08 0.09 0.10 0.12 0.12 0.11 0.10 0.10 0.12 0.16 0.18 0.19 0.22 0.26 0.29 0.35 0.40 0.41 0.45 0.49 0.49 0.47 0.49 0.45 0.42 0.40 0.42 0.47 0.48 0.51

GEFSCGP_prec_meanprecacc_276.txt.gz
Total_Precipitation_Accumulation
0.59 0.74 0.85 0.80 0.82 0.87 0.78 0.74 0.72 0.60 0.49 0.54 0.56 0.57 0.51 0.48 0.43 0.43 0.45 0.44 0.46 0.40 0.36 0.28 0.26 0.28 0.36 0.41 0.45 0.51 0.58 0.56 0.51 0.49 0.57 0.65 0.68 0.79 0.90 0.97 1.04 1.04 1.07 1.17
0.58 0.61 0.55 0.58 0.64 0.76 0.78 0.80 0.77 0.68 0.51 0.51 0.55 0.60 0.51 0.46 0.43 0.37 0.34 0.31 0.36 0.35 0.34 0.29 0.28 0.27 0.28 0.32 0.36 0.44 0.47 0.45 0.41 0.39 0.46 0.56 0.65 0.75 0.95 1.14 1.35 1.28 1.19 1.24
0.56 0.51 0.43 0.47 0.54 0.68 0.71 0.67 0.61 0.69 0.62 0.59 0.67 0.75 0.62 0.53 0.48 0.39 0.31 0.31 0.34 0.32 0.28 0.28 0.29 0.31 0.27 0.28 0.34 0.41 0.43 0.43 0.41 0.47 0.66 0.95 1.23 1.36 1.43 1.48 1.72 1.75 1.62 1.57
0.71 0.49 0.40 0.43 0.48 0.55 0.75 0.55 0.48 0.60 0.77 0.75 0.65 0.81 0.59 0.52 0.57 0.44 0.36 0.32 0.32 0.32 0.30 0.28 0.28 0.32 0.26 0.28 0.34 0.40 0.43 0.50 0.51 0.65 0.97 1.40 1.74 1.87 1.85 1.92 2.00 2.10 2.02 1.86
0.58 0.41 0.39 0.43 0.41 0.48 0.73 0.60 0.60 0.65 0.71 0.68 0.47 0.55 0.48 0.48 0.57 0.46 0.42 0.41 0.41 0.36 0.33 0.32 0.32 0.34 0.32 0.35 0.42 0.49 0.58 0.73 0.88 0.99 1.17 1.49 1.67 1.76 1.88 2.04 2.28 2.45 2.50 2.43
0.43 0.34 0.36 0.37 0.36 0.42 0.55 0.67 0.79 0.79 0.78 0.75 0.39 0.38 0.44 0.44 0.43 0.42 0.42 0.44 0.43 0.37 0.32 0.33 0.39 0.43 0.43 0.50 0.58 0.63 0.80 0.95 0.98 1.08 1.19 1.32 1.41 1.56 1.77 1.96 2.22 2.39 2.43 2.43
0.47 0.41 0.33 0.31 0.44 0.48 0.53 0.77 1.09 1.18 1.09 0.77 0.33 0.33 0.40 0.32 0.28 0.32 0.35 0.33 0.32 0.34 0.34 0.36 0.38 0.45 0.49 0.56 0.63 0.73 0.87 1.03 1.05 1.12 1.21 1.24 1.29 1.42 1.59 1.71 1.77 1.82 1.81 1.83
0.44 0.45 0.31 0.26 0.32 0.41 0.44 0.55 0.91 1.10 0.91 0.63 0.37 0.43 0.41 0.27 0.22 0.19 0.23 0.27 0.30 0.39 0.42 0.43 0.43 0.53 0.62 0.69 0.79 0.90 0.99 1.06 1.11 1.18 1.24 1.23 1.31 1.42 1.53 1.50 1.47 1.54 1.57 1.62
0.37 0.35 0.22 0.22 0.23 0.27 0.42 0.43 0.50 0.64 0.52 0.53 0.42 0.38 0.29 0.19 0.17 0.17 0.22 0.33 0.41 0.48 0.51 0.54 0.56 0.63 0.73 0.81 0.89 0.97 1.08 1.15 1.21 1.21 1.27 1.41 1.45 1.44 1.42 1.32 1.29 1.35 1.31 1.28
0.28 0.35 0.27 0.24 0.26 0.28 0.34 0.43 0.53 0.63 0.70 0.66 0.44 0.39 0.36 0.24 0.23 0.26 0.32 0.41 0.55 0.66 0.68 0.71 0.76 0.81 0.86 0.89 0.98 1.06 1.16 1.29 1.27 1.26 1.34 1.52 1.48 1.24 1.08 0.99 1.03 1.09 1.15 1.19
0.21 0.33 0.37 0.30 0.27 0.29 0.35 0.34 0.43 0.53 0.55 0.76 0.87 0.82 0.65 0.60 0.49 0.53 0.58 0.66 0.84 0.90 0.91 0.89 0.94 0.99 0.97 0.99 1.08 1.10 1.17 1.34 1.36 1.26 1.34 1.34 1.15 0.90 0.81 0.81 0.80 0.80 0.83 0.88
0.18 0.31 0.36 0.27 0.18 0.18 0.28 0.28 0.31 0.53 0.55 0.60 0.93 0.96 0.81 0.84 0.81 0.91 1.00 1.16 1.12 1.10 1.13 1.03 0.98 0.99 0.91 0.90 1.00 1.07 1.18 1.26 1.19 1.15 1.13 0.96 0.77 0.66 0.63 0.60 0.57 0.56 0.58 0.59
0.25 0.35 0.45 0.42 0.35 0.24 0.23 0.19 0.21 0.32 0.51 0.61 0.94 0.98 0.74 0.83 0.94 1.10 1.21 1.23 1.05 0.92 0.86 0.82 0.81 0.75 0.71 0.73 0.78 0.82 0.96 1.03 0.84 0.76 0.79 0.74 0.63 0.58 0.54 0.50 0.49 0.47 0.50 0.51
0.28 0.32 0.40 0.45 0.37 0.23 0.20 0.16 0.17 0.27 0.49 0.53 0.65 0.71 0.65 0.77 0.93 1.03 1.07 0.97 0.76 0.65 0.61 0.57 0.50 0.46 0.51 0.52 0.52 0.49 0.53 0.64 0.58 0.53 0.57 0.57 0.55 0.53 0.53 0.53 0.52 0.48 0.47 0.48
0.30 0.30 0.25 0.23 0.17 0.15 0.15 0.15 0.16 0.20 0.27 0.44 0.50 0.50 0.51 0.56 0.59 0.61 0.64 0.63 0.54 0.49 0.41 0.38 0.38 0.36 0.41 0.42 0.41 0.39 0.36 0.39 0.42 0.41 0.43 0.50 0.53 0.54 0.51 0.52 0.50 0.48 0.46 0.43
0.29 0.28 0.19 0.17 0.14 0.13 0.11 0.10 0.13 0.16 0.21 0.30 0.32 0.32 0.30 0.28 0.25 0.24 0.26 0.32 0.30 0.28 0.25 0.27 0.30 0.33 0.37 0.36 0.34 0.34 0.32 0.31 0.31 0.32 0.32 0.40 0.48 0.50 0.52 0.50 0.47 0.43 0.44 0.43
0.31 0.30 0.27 0.18 0.13 0.17 0.15 0.09 0.11 0.15 0.15 0.19 0.24 0.27 0.28 0.22 0.17 0.15 0.14 0.15 0.17 0.19 0.21 0.23 0.26 0.32 0.37 0.35 0.35 0.35 0.33 0.29 0.29 0.30 0.33 0.38 0.40 0.39 0.44 0.46 0.41 0.36 0.39 0.41
0.25 0.31 0.38 0.29 0.26 0.29 0.15 0.07 0.07 0.09 0.10 0.14 0.17 0.18 0.21 0.18 0.18 0.15 0.13 0.13 0.14 0.15 0.17 0.20 0.23 0.28 0.35 0.36 0.37 0.37 0.36 0.34 0.31 0.31 0.32 0.36 0.37 0.37 0.35 0.38 0.36 0.34 0.36 0.38
0.21 0.32 0.47 0.42 0.35 0.19 0.10 0.09 0.08 0.08 0.10 0.12 0.11 0.10 0.10 0.11 0.15 0.13 0.11 0.10 0.10 0.11 0.13 0.16 0.20 0.29 0.35 0.38 0.41 0.43 0.38 0.36 0.35 0.33 0.31 0.32 0.34 0.36 0.36 0.31 0.31 0.33 0.37 0.38
0.26 0.31 0.49 0.50 0.46 0.28 0.13 0.07 0.07 0.10 0.15 0.14 0.12 0.10 0.10 0.12 0.16 0.14 0.11 0.09 0.09 0.10 0.11 0.14 0.17 0.25 0.32 0.38 0.41 0.43 0.44 0.37 0.33 0.33 0.33 0.33 0.32 0.30 0.33 0.32 0.32 0.33 0.37 0.41
0.36 0.40 0.45 0.44 0.43 0.23 0.10 0.08 0.10 0.20 0.21 0.15 0.13 0.11 0.12 0.13 0.13 0.12 0.09 0.07 0.09 0.09 0.10 0.12 0.16 0.24 0.29 0.36 0.39 0.44 0.45 0.35 0.32 0.37 0.41 0.40 0.36 0.34 0.39 0.41 0.39 0.38 0.38 0.41
0.43 0.46 0.43 0.42 0.46 0.29 0.11 0.13 0.20 0.22 0.15 0.11 0.11 0.11 0.11 0.11 0.11 0.09 0.09 0.08 0.09 0.10 0.11 0.12 0.15 0.21 0.25 0.32 0.38 0.42 0.44 0.41 0.40 0.40 0.42 0.42 0.42 0.42 0.45 0.49 0.49 0.49 0.47 0.46
0.41 0.44 0.45 0.38 0.30 0.19 0.14 0.17 0.19 0.17 0.16 0.12 0.11 0.11 0.10 0.10 0.10 0.09 0.10 0.09 0.10 0.10 0.11 0.14 0.17 0.20 0.23 0.30 0.33 0.38 0.42 0.46 0.45 0.43 0.43 0.44 0.46 0.47 0.46 0.47 0.51 0.53 0.51 0.48
0.36 0.35 0.42 0.37 0.23 0.19 0.19 0.18 0.19 0.18 0.14 0.11 0.10 0.10 0.11 0.10 0.11 0.10 0.10 0.09 0.10 0.12 0.13 0.15 0.19 0.22 0.24 0.31 0.36 0.46 0.48 0.45 0.48 0.49 0.49 0.47 0.46 0.46 0.46 0.46 0.46 0.46 0.47 0.46
0.44 0.47 0.47 0.41 0.30 0.26 0.25 0.22 0.21 0.19 0.13 0.10 0.08 0.08 0.10 0.10 0.10 0.12 0.12 0.10 0.10 0.12 0.13 0.16 0.21 0.24 0.25 0.31 0.36 0.46 0.46 0.46 0.49 0.53 0.53 0.50 0.46 0.43 0.43 0.43 0.44 0.45 0.44 0.47
0.42 0.51 0.55 0.50 0.34 0.33 0.29 0.22 0.19 0.19 0.16 0.11 0.08 0.08 0.08 0.10 0.10 0.13 0.12 0.11 0.10 0.11 0.13 0.17 0.19 0.21 0.23 0.27 0.30 0.36 0.41 0.42 0.46 0.50 0.51 0.48 0.50 0.47 0.43 0.42 0.45 0.51 0.52 0.55

GEFSCGP_prec_meanprecacc_282.txt.gz
Total_Precipitation_Accumulation
0.59 0.76 0.86 0.81 0.83 0.89 0.79 0.75 0.74 0.61 0.49 0.54 0.57 0.58 0.52 0.49 0.44 0.44 0.46 0.44 0.47 0.40 0.36 0.29 0.28 0.29 0.37 0.42 0.46 0.52 0.59 0.58 0.53 0.51 0.60 0.68 0.70 0.82 0.93 1.00 1.09 1.09 1.10 1.19
0.59 0.61 0.56 0.59 0.66 0.79 0.81 0.82 0.78 0.69 0.52 0.52 0.56 0.60 0.52 0.47 0.44 0.38 0.34 0.33 0.38 0.35 0.34 0.30 0.29 0.28 0.29 0.33 0.38 0.45 0.49 0.48 0.44 0.41 0.48 0.59 0.67 0.77 0.98 1.18 1.39 1.32 1.22 1.26
0.57 0.51 0.44 0.47 0.56 0.70 0.72 0.68 0.62 0.70 0.63 0.60 0.68 0.75 0.63 0.54 0.49 0.40 0.32 0.32 0.35 0.33 0.28 0.29 0.29 0.32 0.28 0.30 0.35 0.42 0.45 0.47 0.46 0.52 0.70 0.99 1.26 1.39 1.46 1.53 1.76 1.78 1.65 1.60
0.71 0.49 0.41 0.44 0.49 0.56 0.77 0.55 0.48 0.60 0.78 0.76 0.66 0.82 0.59 0.53 0.59 0.46 0.37 0.33 0.33 0.33 0.30 0.28 0.29 0.33 0.27 0.30 0.37 0.43 0.46 0.55 0.57 0.70 1.03 1.46 1.78 1.91 1.88 1.96 2.04 2.13 2.06 1.89
0.59 0.41 0.40 0.44 0.41 0.49 0.74 0.61 0.60 0.66 0.72 0.69 0.48 0.55 0.49 0.49 0.58 0.48 0.43 0.42 0.41 0.36 0.33 0.32 0.33 0.35 0.32 0.35 0.43 0.51 0.60 0.78 0.94 1.06 1.24 1.57 1.73 1.79 1.91 2.06 2.30 2.48 2.53 2.46
0.43 0.34 0.36 0.38 0.37 0.42 0.56 0.68 0.80 0.80 0.79 0.76 0.40 0.39 0.45 0.45 0.43 0.43 0.42 0.45 0.44 0.37 0.32 0.34 0.40 0.44 0.44 0.50 0.58 0.64 0.82 0.98 1.04 1.15 1.27 1.40 1.48 1.60 1.80 1.99 2.24 2.41 2.44 2.45
0.48 0.41 0.33 0.31 0.44 0.49 0.53 0.77 1.10 1.19 1.10 0.77 0.34 0.34 0.41 0.33 0.29 0.33 0.35 0.33 0.33 0.34 0.35 0.37 0.39 0.47 0.51 0.57 0.64 0.75 0.90 1.07 1.11 1.20 1.30 1.31 1.36 1.47 1.62 1.73 1.80 1.84 1.83 1.85
0.46 0.47 0.31 0.26 0.32 0.41 0.44 0.55 0.91 1.11 0.92 0.65 0.37 0.44 0.42 0.27 0.22 0.20 0.24 0.27 0.31 0.39 0.42 0.44 0.44 0.56 0.64 0.71 0.81 0.92 1.02 1.11 1.16 1.25 1.33 1.31 1.39 1.49 1.56 1.53 1.49 1.56 1.58 1.63
0.38 0.37 0.23 0.22 0.23 0.27 0.42 0.43 0.50 0.64 0.53 0.55 0.43 0.38 0.30 0.19 0.18 0.17 0.23 0.33 0.42 0.49 0.52 0.55 0.58 0.66 0.75 0.82 0.90 1.00 1.12 1.21 1.26 1.27 1.34 1.48 1.53 1.52 1.49 1.36 1.31 1.37 1.33 1.30
0.30 0.36 0.29 0.25 0.27 0.29 0.34 0.43 0.54 0.63 0.71 0.66 0.45 0.40 0.36 0.25 0.24 0.27 0.33 0.42 0.56 0.66 0.69 0.72 0.78 0.84 0.89 0.92 1.00 1.09 1.20 1.33 1.31 1.32 1.42 1.58 1.53 1.30 1.14 1.06 1.09 1.13 1.18 1.23
0.22 0.35 0.38 0.32 0.27 0.29 0.35 0.34 0.44 0.54 0.55 0.77 0.88 0.83 0.65 0.60 0.49 0.54 0.58 0.67 0.84 0.91 0.92 0.90 0.95 1.01 0.99 1.01 1.10 1.13 1.20 1.37 1.39 1.30 1.40 1.41 1.20 0.95 0.85 0.86 0.87 0.88 0.88 0.92
0.19 0.32 0.37 0.28 0.19 0.19 0.28 0.28 0.32 0.54 0.56 0.61 0.94 0.98 0.81 0.84 0.81 0.91 1.00 1.16 1.13 1.11 1.13 1.05 0.99 1.00 0.93 0.91 1.01 1.09 1.21 1.28 1.21 1.17 1.17 1.01 0.82 0.71 0.67 0.65 0.63 0.63 0.66 0.65
0.26 0.36 0.46 0.42 0.36 0.25 0.23 0.19 0.21 0.32 0.51 0.61 0.95 0.99 0.75 0.84 0.94 1.11 1.22 1.24 1.06 0.93 0.87 0.82 0.81 0.75 0.71 0.73 0.78 0.84 0.98 1.05 0.85 0.76 0.81 0.78 0.69 0.64 0.61 0.57 0.55 0.52 0.56 0.59
0.29 0.33 0.40 0.46 0.37 0.24 0.21 0.17 0.17 0.27 0.49 0.53 0.66 0.72 0.65 0.78 0.93 1.04 1.08 0.98 0.77 0.65 0.62 0.58 0.51 0.47 0.51 0.53 0.53 0.50 0.55 0.67 0.60 0.54 0.58 0.61 0.59 0.58 0.60 0.60 0.57 0.53 0.52 0.54
0.30 0.31 0.25 0.24 0.18 0.16 0.15 0.15 0.16 0.21 0.28 0.44 0.51 0.50 0.51 0.56 0.59 0.62 0.65 0.63 0.55 0.49 0.42 0.40 0.38 0.37 0.42 0.42 0.42 0.41 0.38 0.41 0.44 0.43 0.44 0.51 0.55 0.56 0.54 0.56 0.53 0.51 0.51 0.50
0.29 0.28 0.19 0.17 0.15 0.14 0.11 0.10 0.13 0.17 0.21 0.31 0.32 0.33 0.30 0.28 0.25 0.24 0.27 0.32 0.30 0.29 0.26 0.29 0.31 0.33 0.38 0.37 0.35 0.35 0.33 0.32 0.32 0.33 0.34 0.41 0.49 0.51 0.53 0.52 0.50 0.47 0.48 0.49
0.31 0.30 0.28 0.19 0.13 0.18 0.15 0.09 0.11 0.16 0.15 0.19 0.24 0.28 0.28 0.22 0.18 0.15 0.14 0.15 0.17 0.19 0.21 0.23 0.26 0.32 0.38 0.37 0.35 0.35 0.34 0.30 0.30 0.31 0.34 0.39 0.42 0.40 0.45 0.48 0.43 0.40 0.44 0.47
0.26 0.31 0.39 0.29 0.26 0.30 0.15 0.07 0.07 0.10 0.10 0.14 0.17 0.18 0.21 0.18 0.18 0.15 0.13 0.13 0.14 0.15 0.17 0.21 0.24 0.28 0.36 0.37 0.37 0.38 0.36 0.34 0.32 0.31 0.33 0.37 0.38 0.38 0.36 0.39 0.37 0.36 0.41 0.46
0.21 0.32 0.48 0.43 0.36 0.20 0.11 0.09 0.08 0.08 0.10 0.12 0.11 0.10 0.11 0.11 0.15 0.14 0.11 0.11 0.10 0.11 0.13 0.16 0.21 0.30 0.36 0.39 0.42 0.43 0.39 0.37 0.36 0.34 0.32 0.32 0.34 0.37 0.36 0.32 0.32 0.34 0.40 0.44
0.26 0.32 0.50 0.51 0.46 0.28 0.13 0.07 0.07 0.10 0.16 0.14 0.12 0.10 0.10 0.12 0.17 0.14 0.11 0.09 0.09 0.10 0.11 0.14 0.18 0.26 0.33 0.39 0.41 0.44 0.45 0.37 0.33 0.33 0.34 0.34 0.33 0.31 0.33 0.32 0.32 0.33 0.39 0.45
0.36 0.41 0.46 0.45 0.44 0.23 0.10 0.08 0.10 0.21 0.22 0.15 0.13 0.12 0.13 0.13 0.13 0.12 0.09 0.07 0.09 0.09 0.11 0.12 0.17 0.25 0.30 0.37 0.40 0.45 0.46 0.35 0.33 0.39 0.42 0.41 0.37 0.36 0.40 0.42 0.40 0.39 0.40 0.43
0.44 0.47 0.44 0.43 0.47 0.30 0.11 0.13 0.20 0.23 0.16 0.12 0.12 0.12 0.12 0.11 0.11 0.09 0.09 0.08 0.10 0.10 0.12 0.13 0.16 0.21 0.26 0.33 0.39 0.43 0.45 0.42 0.41 0.42 0.43 0.43 0.43 0.43 0.46 0.50 0.50 0.50 0.48 0.48
0.42 0.45 0.46 0.38 0.30 0.19 0.14 0.18 0.20 0.18 0.16 0.13 0.12 0.11 0.11 0.10 0.10 0.09 0.10 0.09 0.10 0.11 0.12 0.14 0.17 0.21 0.24 0.31 0.35 0.39 0.43 0.47 0.46 0.45 0.45 0.45 0.46 0.48 0.47 0.49 0.52 0.54 0.52 0.49
0.36 0.35 0.43 0.38 0.23 0.19 0.19 0.19 0.20 0.19 0.15 0.12 0.11 0.11 0.11 0.11 0.11 0.11 0.10 0.09 0.11 0.12 0.13 0.16 0.20 0.22 0.25 0.31 0.36 0.47 0.49 0.47 0.49 0.50 0.50 0.48 0.46 0.46 0.46 0.48 0.48 0.48 0.49 0.48
0.44 0.48 0.48 0.42 0.30 0.27 0.26 0.23 0.22 0.20 0.15 0.11 0.09 0.10 0.11 0.11 0.11 0.13 0.12 0.11 0.11 0.13 0.15 0.18 0.22 0.25 0.26 0.31 0.37 0.46 0.47 0.47 0.50 0.54 0.54 0.51 0.47 0.43 0.44 0.44 0.45 0.47 0.46 0.50
0.43 0.52 0.56 0.51 0.35 0.34 0.30 0.23 0.20 0.20 0.17 0.12 0.10 0.09 0.10 0.11 0.11 0.13 0.13 0.11 0.11 0.12 0.14 0.18 0.20 0.22 0.24 0.28 0.31 0.37 0.42 0.43 0.47 0.51 0.51 0.49 0.51 0.48 0.44 0.43 0.46 0.52 0.54 0.58

GEFSCGP_prec_meanprecacc_288.txt.gz
Total_Precipitation_Accumulation
0.59 0.76 0.86 0.81 0.83 0.89 0.80 0.76 0.74 0.61 0.50 0.55 0.57 0.58 0.53 0.49 0.45 0.44 0.46 0.44 0.47 0.40 0.36 0.29 0.28 0.29 0.38 0.44 0.47 0.53 0.61 0.60 0.55 0.53 0.62 0.72 0.76 0.86 0.97 1.05 1.15 1.15 1.14 1.21
0.59 0.62 0.56 0.59 0.66 0.81 0.83 0.83 0.79 0.70 0.52 0.52 0.56 0.61 0.53 0.48 0.44 0.38 0.34 0.33 0.38 0.35 0.34 0.30 0.30 0.28 0.29 0.34 0.39 0.47 0.50 0.50 0.45 0.43 0.50 0.63 0.75 0.85 1.04 1.24 1.46 1.38 1.27 1.30
0.57 0.52 0.44 0.48 0.56 0.72 0.74 0.69 0.63 0.71 0.64 0.61 0.69 0.76 0.64 0.54 0.49 0.40 0.32 0.32 0.35 0.33 0.29 0.29 0.30 0.32 0.28 0.31 0.36 0.44 0.47 0.48 0.47 0.53 0.72 1.03 1.34 1.49 1.54 1.58 1.80 1.83 1.70 1.64
0.72 0.49 0.41 0.44 0.50 0.58 0.78 0.56 0.49 0.61 0.80 0.77 0.67 0.82 0.59 0.54 0.59 0.46 0.37 0.33 0.33 0.33 0.31 0.29 0.29 0.33 0.27 0.30 0.38 0.44 0.47 0.56 0.58 0.72 1.05 1.49 1.84 2.00 1.96 2.02 2.10 2.18 2.10 1.93
0.59 0.41 0.40 0.45 0.42 0.50 0.75 0.61 0.61 0.67 0.74 0.70 0.49 0.56 0.49 0.49 0.58 0.48 0.43 0.42 0.41 0.36 0.34 0.33 0.34 0.37 0.33 0.36 0.45 0.52 0.62 0.79 0.95 1.08 1.27 1.60 1.77 1.85 1.99 2.14 2.38 2.55 2.58 2.51
0.44 0.34 0.36 0.38 0.37 0.43 0.57 0.69 0.80 0.81 0.79 0.77 0.40 0.39 0.45 0.45 0.43 0.43 0.42 0.45 0.44 0.37 0.32 0.34 0.41 0.45 0.46 0.52 0.60 0.66 0.84 1.00 1.06 1.17 1.29 1.42 1.51 1.65 1.88 2.07 2.32 2.49 2.50 2.49
0.50 0.42 0.33 0.31 0.45 0.50 0.54 0.78 1.11 1.20 1.10 0.77 0.34 0.34 0.41 0.33 0.29 0.33 0.35 0.33 0.33 0.34 0.35 0.37 0.40 0.48 0.52 0.59 0.66 0.76 0.91 1.08 1.12 1.22 1.32 1.34 1.40 1.52 1.69 1.79 1.85 1.88 1.87 1.89
0.48 0.48 0.32 0.26 0.33 0.42 0.45 0.56 0.92 1.11 0.92 0.65 0.37 0.44 0.42 0.27 0.22 0.20 0.24 0.27 0.31 0.39 0.42 0.44 0.45 0.57 0.66 0.73 0.83 0.93 1.04 1.12 1.17 1.27 1.36 1.33 1.42 1.54 1.63 1.59 1.54 1.60 1.63 1.67
0.40 0.39 0.24 0.23 0.23 0.27 0.42 0.44 0.51 0.65 0.53 0.55 0.44 0.39 0.30 0.19 0.18 0.18 0.23 0.33 0.42 0.49 0.52 0.56 0.58 0.67 0.76 0.84 0.92 1.01 1.13 1.22 1.27 1.29 1.36 1.49 1.56 1.56 1.54 1.41 1.35 1.41 1.36 1.33
0.30 0.38 0.32 0.26 0.28 0.29 0.34 0.43 0.54 0.64 0.71 0.67 0.45 0.40 0.37 0.25 0.24 0.27 0.33 0.42 0.56 0.67 0.70 0.72 0.79 0.85 0.90 0.93 1.02 1.10 1.21 1.34 1.33 1.33 1.44 1.61 1.58 1.36 1.21 1.10 1.13 1.16 1.20 1.25
0.22 0.35 0.40 0.35 0.29 0.30 0.35 0.35 0.44 0.54 0.56 0.77 0.88 0.84 0.66 0.61 0.49 0.54 0.58 0.67 0.85 0.91 0.93 0.90 0.96 1.02 1.00 1.02 1.11 1.15 1.23 1.39 1.41 1.32 1.43 1.45 1.26 1.00 0.89 0.90 0.91 0.91 0.91 0.94
0.19 0.33 0.39 0.30 0.21 0.20 0.28 0.28 0.32 0.54 0.56 0.61 0.95 0.98 0.82 0.84 0.81 0.91 1.01 1.16 1.13 1.11 1.14 1.05 0.99 1.01 0.93 0.91 1.02 1.11 1.23 1.30 1.22 1.19 1.18 1.03 0.84 0.73 0.70 0.69 0.66 0.66 0.69 0.67
0.26 0.37 0.47 0.43 0.37 0.26 0.24 0.20 0.21 0.32 0.52 0.61 0.95 0.99 0.76 0.84 0.94 1.11 1.22 1.24 1.06 0.93 0.88 0.84 0.82 0.75 0.72 0.74 0.79 0.84 0.99 1.07 0.87 0.78 0.82 0.79 0.70 0.65 0.63 0.61 0.58 0.56 0.59 0.62
0.30 0.33 0.41 0.47 0.38 0.25 0.22 0.18 0.18 0.28 0.49 0.53 0.66 0.72 0.66 0.78 0.94 1.04 1.08 0.98 0.77 0.65 0.62 0.59 0.52 0.48 0.52 0.53 0.53 0.50 0.55 0.68 0.62 0.55 0.59 0.62 0.60 0.59 0.61 0.62 0.60 0.56 0.56 0.59
0.31 0.31 0.26 0.24 0.18 0.16 0.15 0.16 0.17 0.21 0.29 0.44 0.51 0.50 0.52 0.58 0.60 0.62 0.65 0.64 0.55 0.50 0.42 0.40 0.39 0.38 0.43 0.43 0.42 0.41 0.38 0.41 0.45 0.45 0.46 0.53 0.57 0.56 0.54 0.56 0.55 0.53 0.53 0.53
0.29 0.28 0.19 0.18 0.16 0.14 0.12 0.10 0.14 0.18 0.22 0.31 0.33 0.33 0.30 0.28 0.26 0.24 0.27 0.32 0.30 0.29 0.26 0.29 0.31 0.34 0.39 0.39 0.36 0.36 0.33 0.32 0.32 0.34 0.36 0.44 0.51 0.52 0.54 0.52 0.51 0.49 0.50 0.50
0.31 0.31 0.29 0.19 0.14 0.18 0.15 0.09 0.11 0.16 0.15 0.19 0.25 0.28 0.29 0.22 0.18 0.15 0.14 0.15 0.17 0.19 0.21 0.23 0.27 0.32 0.38 0.37 0.36 0.36 0.34 0.30 0.30 0.32 0.35 0.41 0.44 0.42 0.46 0.49 0.44 0.41 0.45 0.48
0.26 0.31 0.39 0.30 0.27 0.30 0.15 0.07 0.07 0.10 0.10 0.14 0.17 0.18 0.21 0.18 0.18 0.16 0.13 0.13 0.14 0.15 0.17 0.21 0.24 0.29 0.36 0.38 0.38 0.38 0.37 0.34 0.32 0.32 0.33 0.38 0.40 0.40 0.39 0.41 0.38 0.38 0.42 0.46
0.21 0.32 0.48 0.43 0.36 0.20 0.11 0.09 0.08 0.08 0.10 0.12 0.11 0.10 0.11 0.12 0.15 0.14 0.12 0.11 0.11 0.12 0.13 0.17 0.21 0.30 0.36 0.39 0.43 0.44 0.39 0.37 0.36 0.34 0.32 0.33 0.36 0.39 0.39 0.34 0.33 0.35 0.41 0.44
0.26 0.32 0.50 0.51 0.46 0.29 0.14 0.07 0.08 0.10 0.16 0.15 0.13 0.11 0.11 0.12 0.17 0.15 0.12 0.10 0.09 0.10 0.11 0.14 0.18 0.27 0.33 0.39 0.42 0.45 0.45 0.38 0.33 0.34 0.34 0.35 0.35 0.33 0.36 0.35 0.34 0.35 0.41 0.46
0.36 0.41 0.46 0.46 0.44 0.23 0.10 0.08 0.11 0.21 0.22 0.16 0.14 0.13 0.13 0.14 0.13 0.12 0.09 0.07 0.09 0.10 0.11 0.12 0.17 0.25 0.30 0.37 0.40 0.46 0.47 0.36 0.33 0.39 0.43 0.42 0.38 0.38 0.43 0.45 0.43 0.42 0.41 0.44
0.44 0.48 0.44 0.43 0.47 0.30 0.12 0.13 0.21 0.23 0.16 0.13 0.12 0.12 0.12 0.12 0.11 0.09 0.09 0.09 0.10 0.10 0.12 0.13 0.16 0.21 0.26 0.33 0.39 0.43 0.46 0.43 0.42 0.42 0.45 0.44 0.44 0.44 0.48 0.52 0.52 0.52 0.51 0.50
0.43 0.46 0.46 0.39 0.30 0.19 0.14 0.18 0.20 0.18 0.17 0.13 0.13 0.12 0.11 0.11 0.10 0.09 0.10 0.09 0.10 0.11 0.12 0.14 0.17 0.21 0.24 0.32 0.35 0.40 0.44 0.48 0.47 0.46 0.46 0.46 0.48 0.49 0.48 0.50 0.54 0.55 0.54 0.50
0.37 0.36 0.44 0.39 0.23 0.19 0.19 0.19 0.21 0.19 0.16 0.12 0.11 0.11 0.12 0.11 0.12 0.11 0.11 0.10 0.11 0.13 0.14 0.16 0.20 0.23 0.25 0.32 0.37 0.47 0.50 0.48 0.51 0.52 0.52 0.50 0.48 0.48 0.48 0.49 0.49 0.49 0.50 0.49
0.45 0.49 0.49 0.43 0.31 0.27 0.26 0.23 0.22 0.20 0.15 0.12 0.10 0.11 0.12 0.13 0.13 0.14 0.14 0.12 0.12 0.14 0.16 0.19 0.23 0.26 0.27 0.32 0.38 0.47 0.48 0.49 0.52 0.56 0.56 0.53 0.48 0.44 0.45 0.44 0.45 0.47 0.47 0.51
0.43 0.52 0.57 0.52 0.36 0.34 0.30 0.23 0.20 0.20 0.17 0.13 0.10 0.10 0.11 0.12 0.12 0.14 0.14 0.12 0.11 0.12 0.15 0.18 0.21 0.23 0.26 0.29 0.32 0.39 0.43 0.45 0.49 0.53 0.53 0.50 0.52 0.49 0.45 0.43 0.46 0.53 0.54 0.58

GEFSCGP_prec_meanprecacc_294.txt.gz
Total_Precipitation_Accumulation
0.60 0.77 0.87 0.81 0.83 0.90 0.81 0.76 0.75 0.62 0.50 0.55 0.58 0.58 0.53 0.49 0.45 0.44 0.46 0.44 0.47 0.40 0.36 0.29 0.28 0.29 0.38 0.44 0.47 0.54 0.61 0.60 0.55 0.53 0.62 0.73 0.77 0.88 0.98 1.07 1.18 1.19 1.17 1.24
0.59 0.62 0.56 0.59 0.67 0.82 0.84 0.84 0.79 0.70 0.53 0.53 0.56 0.61 0.53 0.48 0.45 0.38 0.34 0.33 0.38 0.35 0.34 0.30 0.30 0.29 0.30 0.34 0.39 0.47 0.51 0.50 0.45 0.43 0.51 0.64 0.77 0.88 1.06 1.26 1.49 1.43 1.31 1.33
0.58 0.52 0.44 0.48 0.57 0.73 0.75 0.70 0.63 0.71 0.65 0.62 0.70 0.76 0.64 0.54 0.49 0.40 0.32 0.32 0.35 0.33 0.29 0.29 0.30 0.32 0.29 0.31 0.37 0.44 0.47 0.48 0.47 0.54 0.72 1.04 1.34 1.51 1.57 1.61 1.83 1.88 1.74 1.68
0.73 0.50 0.41 0.44 0.50 0.58 0.80 0.57 0.49 0.62 0.82 0.79 0.68 0.83 0.60 0.54 0.59 0.46 0.37 0.33 0.33 0.33 0.31 0.29 0.29 0.34 0.28 0.31 0.39 0.44 0.47 0.56 0.58 0.72 1.05 1.51 1.86 2.01 1.98 2.04 2.12 2.22 2.15 1.97
0.60 0.41 0.41 0.45 0.42 0.50 0.77 0.62 0.63 0.69 0.76 0.71 0.49 0.56 0.49 0.49 0.58 0.48 0.43 0.42 0.41 0.36 0.34 0.33 0.34 0.37 0.35 0.37 0.45 0.52 0.62 0.79 0.96 1.09 1.28 1.61 1.78 1.86 2.00 2.14 2.40 2.59 2.64 2.57
0.45 0.35 0.37 0.38 0.38 0.44 0.58 0.71 0.82 0.82 0.82 0.78 0.40 0.40 0.45 0.45 0.43 0.43 0.43 0.45 0.44 0.37 0.33 0.34 0.41 0.46 0.46 0.53 0.61 0.66 0.84 1.00 1.06 1.18 1.30 1.44 1.53 1.67 1.89 2.08 2.34 2.51 2.54 2.54
0.51 0.43 0.34 0.32 0.46 0.51 0.55 0.79 1.12 1.21 1.12 0.78 0.34 0.34 0.41 0.33 0.29 0.33 0.35 0.34 0.33 0.34 0.35 0.37 0.40 0.48 0.52 0.60 0.68 0.77 0.92 1.08 1.13 1.23 1.33 1.35 1.42 1.54 1.71 1.81 1.86 1.90 1.89 1.91
0.49 0.50 0.33 0.27 0.33 0.42 0.46 0.56 0.93 1.13 0.93 0.66 0.38 0.45 0.42 0.28 0.23 0.21 0.24 0.27 0.31 0.39 0.42 0.44 0.45 0.57 0.66 0.74 0.84 0.93 1.04 1.12 1.17 1.27 1.36 1.34 1.43 1.56 1.65 1.60 1.56 1.62 1.65 1.70
0.41 0.40 0.25 0.23 0.24 0.28 0.43 0.44 0.51 0.65 0.54 0.56 0.45 0.39 0.31 0.20 0.18 0.18 0.24 0.34 0.42 0.49 0.52 0.56 0.59 0.68 0.77 0.84 0.93 1.02 1.14 1.22 1.28 1.29 1.37 1.50 1.57 1.58 1.56 1.44 1.39 1.45 1.39 1.35
0.31 0.39 0.32 0.27 0.29 0.30 0.35 0.44 0.55 0.64 0.71 0.67 0.46 0.41 0.38 0.26 0.25 0.27 0.33 0.42 0.57 0.67 0.70 0.73 0.80 0.87 0.91 0.94 1.03 1.11 1.22 1.34 1.33 1.33 1.45 1.62 1.59 1.37 1.22 1.12 1.15 1.18 1.22 1.26
0.23 0.36 0.41 0.35 0.29 0.31 0.35 0.35 0.45 0.55 0.56 0.77 0.88 0.84 0.67 0.61 0.50 0.54 0.59 0.67 0.85 0.91 0.93 0.90 0.96 1.03 1.01 1.03 1.12 1.16 1.24 1.39 1.41 1.32 1.44 1.46 1.27 1.01 0.90 0.90 0.92 0.92 0.92 0.96
0.20 0.34 0.39 0.31 0.21 0.20 0.29 0.29 0.32 0.54 0.56 0.62 0.95 0.98 0.82 0.84 0.82 0.92 1.01 1.16 1.13 1.11 1.15 1.06 1.00 1.01 0.93 0.92 1.02 1.11 1.24 1.31 1.22 1.19 1.19 1.03 0.85 0.74 0.71 0.69 0.67 0.67 0.70 0.69
0.28 0.38 0.48 0.44 0.38 0.27 0.25 0.20 0.22 0.33 0.52 0.61 0.96 1.00 0.76 0.84 0.94 1.11 1.22 1.24 1.06 0.94 0.88 0.84 0.83 0.77 0.72 0.74 0.79 0.85 1.00 1.07 0.88 0.78 0.82 0.79 0.70 0.66 0.64 0.61 0.59 0.57 0.60 0.63
0.31 0.34 0.42 0.48 0.39 0.25 0.23 0.19 0.19 0.29 0.50 0.54 0.66 0.72 0.66 0.78 0.94 1.04 1.08 0.98 0.77 0.66 0.63 0.60 0.53 0.49 0.53 0.53 0.53 0.51 0.56 0.68 0.63 0.56 0.60 0.62 0.61 0.60 0.62 0.63 0.60 0.56 0.57 0.60
0.31 0.32 0.27 0.25 0.19 0.16 0.16 0.16 0.18 0.22 0.30 0.45 0.51 0.50 0.52 0.58 0.61 0.62 0.66 0.64 0.55 0.50 0.42 0.40 0.39 0.38 0.43 0.43 0.43 0.41 0.38 0.42 0.45 0.46 0.46 0.53 0.57 0.57 0.55 0.57 0.55 0.54 0.53 0.53
0.29 0.29 0.20 0.19 0.16 0.15 0.12 0.10 0.14 0.18 0.23 0.31 0.33 0.33 0.30 0.29 0.26 0.25 0.27 0.32 0.31 0.29 0.26 0.29 0.32 0.34 0.39 0.39 0.37 0.36 0.34 0.33 0.33 0.34 0.36 0.44 0.51 0.53 0.54 0.53 0.51 0.50 0.50 0.51
0.31 0.31 0.29 0.20 0.14 0.18 0.16 0.09 0.11 0.17 0.16 0.20 0.25 0.29 0.29 0.23 0.18 0.15 0.14 0.15 0.17 0.19 0.21 0.23 0.27 0.32 0.38 0.38 0.37 0.37 0.35 0.31 0.31 0.32 0.35 0.41 0.44 0.42 0.46 0.49 0.45 0.42 0.46 0.49
0.26 0.31 0.40 0.30 0.27 0.31 0.15 0.07 0.07 0.10 0.11 0.15 0.17 0.18 0.21 0.18 0.18 0.16 0.13 0.13 0.14 0.16 0.17 0.21 0.24 0.29 0.36 0.38 0.38 0.38 0.37 0.34 0.32 0.32 0.33 0.39 0.40 0.40 0.39 0.42 0.39 0.38 0.43 0.47
0.21 0.32 0.48 0.44 0.36 0.20 0.11 0.09 0.08 0.08 0.10 0.13 0.11 0.10 0.11 0.12 0.16 0.14 0.12 0.11 0.11 0.12 0.14 0.17 0.21 0.30 0.36 0.39 0.43 0.44 0.40 0.37 0.36 0.34 0.32 0.33 0.36 0.39 0.39 0.35 0.34 0.36 0.42 0.45
0.26 0.32 0.50 0.51 0.47 0.29 0.14 0.07 0.08 0.11 0.17 0.15 0.13 0.11 0.11 0.13 0.17 0.15 0.12 0.10 0.10 0.10 0.11 0.14 0.18 0.27 0.33 0.40 0.43 0.45 0.45 0.38 0.34 0.34 0.34 0.35 0.35 0.34 0.36 0.36 0.36 0.37 0.42 0.47
0.36 0.41 0.46 0.46 0.45 0.23 0.10 0.08 0.11 0.21 0.23 0.16 0.14 0.13 0.13 0.14 0.14 0.12 0.09 0.07 0.09 0.10 0.11 0.12 0.17 0.25 0.30 0.37 0.40 0.47 0.48 0.37 0.34 0.40 0.43 0.42 0.38 0.39 0.44 0.46 0.44 0.43 0.43 0.46
0.44 0.48 0.44 0.44 0.48 0.30 0.12 0.13 0.21 0.24 0.16 0.13 0.12 0.12 0.12 0.12 0.11 0.10 0.09 0.09 0.10 0.10 0.12 0.13 0.16 0.21 0.26 0.33 0.39 0.43 0.46 0.43 0.43 0.43 0.45 0.45 0.44 0.45 0.48 0.53 0.54 0.54 0.53 0.52
0.43 0.46 0.46 0.39 0.30 0.19 0.14 0.18 0.20 0.18 0.17 0.13 0.13 0.12 0.11 0.11 0.10 0.10 0.10 0.10 0.10 0.11 0.12 0.14 0.17 0.21 0.24 0.32 0.35 0.40 0.44 0.49 0.47 0.46 0.47 0.47 0.48 0.50 0.49 0.51 0.55 0.57 0.56 0.53
0.37 0.36 0.44 0.39 0.24 0.19 0.19 0.19 0.21 0.19 0.16 0.12 0.12 0.12 0.13 0.12 0.13 0.12 0.12 0.11 0.12 0.14 0.15 0.17 0.21 0.23 0.25 0.32 0.37 0.48 0.50 0.49 0.51 0.52 0.53 0.51 0.49 0.49 0.49 0.50 0.51 0.51 0.52 0.51
0.45 0.49 0.49 0.43 0.31 0.28 0.26 0.23 0.22 0.20 0.15 0.12 0.10 0.11 0.13 0.14 0.14 0.15 0.15 0.13 0.13 0.14 0.16 0.20 0.24 0.26 0.27 0.33 0.38 0.48 0.49 0.49 0.53 0.57 0.56 0.53 0.49 0.46 0.46 0.45 0.46 0.48 0.48 0.52
0.43 0.52 0.57 0.52 0.36 0.35 0.30 0.23 0.20 0.20 0.17 0.13 0.10 0.10 0.11 0.12 0.13 0.15 0.14 0.12 0.12 0.12 0.15 0.19 0.21 0.24 0.26 0.30 0.33 0.39 0.44 0.45 0.49 0.54 0.54 0.51 0.53 0.50 0.46 0.45 0.47 0.54 0.55 0.60

GEFSCGP_prec_meanprecacc_300.txt.gz
Total_Precipitation_Accumulation
0.60 0.78 0.88 0.82 0.84 0.91 0.81 0.77 0.76 0.63 0.50 0.55 0.58 0.59 0.53 0.50 0.46 0.45 0.46 0.44 0.47 0.40 0.36 0.30 0.30 0.33 0.44 0.47 0.48 0.54 0.61 0.60 0.55 0.53 0.63 0.74 0.78 0.89 0.99 1.08 1.19 1.21 1.19 1.26
0.60 0.63 0.56 0.59 0.67 0.82 0.85 0.86 0.80 0.71 0.53 0.53 0.57 0.62 0.54 0.48 0.45 0.39 0.35 0.33 0.38 0.35 0.34 0.30 0.31 0.34 0.34 0.38 0.40 0.47 0.51 0.50 0.46 0.43 0.51 0.64 0.78 0.89 1.07 1.27 1.51 1.46 1.33 1.36
0.58 0.52 0.44 0.48 0.57 0.73 0.76 0.72 0.64 0.73 0.66 0.62 0.71 0.78 0.65 0.55 0.49 0.41 0.32 0.32 0.36 0.33 0.29 0.29 0.31 0.35 0.32 0.32 0.37 0.44 0.47 0.48 0.47 0.54 0.72 1.04 1.35 1.51 1.58 1.62 1.86 1.92 1.78 1.72
0.73 0.50 0.41 0.45 0.50 0.58 0.80 0.57 0.50 0.64 0.84 0.81 0.70 0.86 0.60 0.54 0.59 0.46 0.37 0.33 0.33 0.33 0.31 0.30 0.32 0.37 0.31 0.33 0.40 0.45 0.47 0.56 0.58 0.72 1.05 1.51 1.86 2.03 2.00 2.06 2.15 2.26 2.20 2.03
0.62 0.42 0.41 0.46 0.42 0.51 0.77 0.63 0.63 0.70 0.77 0.73 0.50 0.58 0.50 0.50 0.59 0.48 0.43 0.42 0.41 0.36 0.34 0.33 0.35 0.41 0.41 0.42 0.46 0.52 0.62 0.79 0.96 1.09 1.28 1.61 1.78 1.87 2.00 2.15 2.42 2.62 2.70 2.64
0.46 0.35 0.37 0.38 0.38 0.44 0.59 0.72 0.84 0.85 0.83 0.80 0.41 0.41 0.47 0.46 0.44 0.44 0.43 0.45 0.44 0.37 0.33 0.34 0.42 0.46 0.48 0.56 0.63 0.66 0.84 1.01 1.06 1.18 1.31 1.44 1.53 1.67 1.90 2.08 2.35 2.53 2.59 2.64
0.52 0.44 0.35 0.33 0.47 0.51 0.56 0.81 1.15 1.24 1.15 0.79 0.35 0.35 0.42 0.34 0.30 0.33 0.36 0.34 0.33 0.34 0.35 0.37 0.40 0.48 0.53 0.61 0.71 0.78 0.92 1.09 1.13 1.23 1.34 1.35 1.42 1.55 1.72 1.83 1.88 1.92 1.92 1.99
0.52 0.51 0.34 0.29 0.36 0.44 0.47 0.57 0.95 1.15 0.95 0.67 0.39 0.46 0.43 0.28 0.23 0.21 0.24 0.28 0.32 0.40 0.43 0.45 0.45 0.58 0.67 0.76 0.86 0.94 1.05 1.13 1.18 1.28 1.36 1.34 1.44 1.57 1.66 1.62 1.59 1.65 1.68 1.74
0.44 0.43 0.25 0.25 0.25 0.29 0.44 0.45 0.52 0.67 0.55 0.57 0.46 0.40 0.31 0.20 0.18 0.18 0.24 0.34 0.43 0.50 0.54 0.56 0.59 0.68 0.78 0.85 0.94 1.03 1.16 1.23 1.29 1.30 1.37 1.50 1.57 1.59 1.57 1.45 1.42 1.48 1.42 1.39
0.33 0.42 0.33 0.27 0.30 0.31 0.35 0.44 0.55 0.65 0.72 0.69 0.47 0.42 0.39 0.27 0.25 0.28 0.33 0.43 0.57 0.67 0.70 0.73 0.80 0.87 0.92 0.95 1.05 1.14 1.24 1.36 1.34 1.34 1.45 1.62 1.59 1.38 1.23 1.14 1.16 1.20 1.25 1.28
0.24 0.38 0.42 0.36 0.30 0.32 0.36 0.36 0.45 0.56 0.57 0.79 0.90 0.85 0.68 0.62 0.50 0.54 0.59 0.67 0.85 0.91 0.93 0.91 0.96 1.03 1.02 1.04 1.13 1.17 1.26 1.41 1.42 1.33 1.44 1.46 1.27 1.01 0.90 0.91 0.93 0.94 0.95 0.98
0.21 0.35 0.40 0.31 0.22 0.20 0.29 0.29 0.33 0.56 0.58 0.63 0.96 0.99 0.82 0.84 0.82 0.92 1.01 1.17 1.14 1.11 1.15 1.06 1.00 1.01 0.94 0.92 1.03 1.13 1.25 1.32 1.23 1.19 1.19 1.03 0.85 0.74 0.71 0.69 0.68 0.68 0.72 0.72
0.29 0.40 0.49 0.45 0.39 0.27 0.25 0.20 0.22 0.33 0.54 0.63 0.97 1.00 0.76 0.84 0.94 1.11 1.22 1.24 1.07 0.94 0.88 0.85 0.83 0.77 0.72 0.74 0.80 0.85 1.00 1.08 0.88 0.78 0.82 0.79 0.70 0.66 0.64 0.61 0.59 0.57 0.62 0.66
0.32 0.35 0.44 0.49 0.40 0.26 0.23 0.19 0.19 0.29 0.52 0.55 0.67 0.73 0.67 0.79 0.94 1.04 1.08 0.98 0.77 0.66 0.63 0.60 0.53 0.49 0.53 0.54 0.54 0.51 0.56 0.69 0.63 0.56 0.60 0.62 0.61 0.60 0.62 0.63 0.60 0.57 0.58 0.61
0.32 0.32 0.27 0.26 0.20 0.17 0.16 0.17 0.18 0.23 0.31 0.47 0.52 0.51 0.53 0.59 0.61 0.62 0.66 0.64 0.55 0.50 0.42 0.41 0.39 0.38 0.43 0.43 0.43 0.42 0.39 0.42 0.46 0.46 0.46 0.53 0.57 0.57 0.55 0.57 0.55 0.54 0.54 0.54
0.30 0.29 0.20 0.19 0.16 0.15 0.12 0.10 0.14 0.19 0.24 0.33 0.34 0.34 0.31 0.29 0.26 0.25 0.27 0.32 0.31 0.29 0.27 0.29 0.32 0.35 0.40 0.40 0.37 0.37 0.35 0.33 0.33 0.34 0.36 0.44 0.51 0.53 0.54 0.53 0.51 0.50 0.51 0.52
0.32 0.32 0.30 0.20 0.14 0.19 0.16 0.09 0.12 0.17 0.17 0.21 0.26 0.29 0.29 0.23 0.18 0.16 0.15 0.16 0.17 0.19 0.21 0.24 0.27 0.33 0.39 0.38 0.37 0.37 0.35 0.32 0.31 0.32 0.35 0.42 0.44 0.43 0.47 0.49 0.45 0.42 0.46 0.49
0.26 0.32 0.40 0.31 0.28 0.31 0.15 0.07 0.07 0.10 0.11 0.15 0.18 0.19 0.22 0.19 0.19 0.16 0.13 0.14 0.14 0.16 0.17 0.21 0.24 0.29 0.36 0.38 0.38 0.38 0.37 0.35 0.32 0.32 0.34 0.39 0.40 0.41 0.39 0.42 0.39 0.39 0.43 0.48
0.21 0.33 0.49 0.44 0.37 0.21 0.11 0.09 0.08 0.09 0.11 0.13 0.12 0.10 0.11 0.12 0.16 0.14 0.12 0.12 0.11 0.12 0.14 0.17 0.22 0.30 0.36 0.39 0.43 0.44 0.40 0.37 0.36 0.34 0.32 0.34 0.37 0.40 0.40 0.35 0.35 0.36 0.42 0.45
0.26 0.32 0.51 0.52 0.48 0.29 0.14 0.07 0.08 0.11 0.17 0.15 0.13 0.11 0.11 0.13 0.18 0.16 0.13 0.11 0.10 0.10 0.11 0.14 0.18 0.27 0.33 0.40 0.43 0.45 0.46 0.38 0.34 0.34 0.35 0.36 0.36 0.34 0.36 0.36 0.36 0.37 0.43 0.48
0.37 0.42 0.47 0.47 0.46 0.24 0.10 0.08 0.11 0.22 0.24 0.16 0.14 0.13 0.13 0.14 0.14 0.12 0.09 0.07 0.09 0.10 0.11 0.12 0.17 0.25 0.30 0.37 0.40 0.47 0.48 0.37 0.34 0.40 0.43 0.43 0.39 0.39 0.44 0.47 0.45 0.45 0.45 0.48
0.45 0.49 0.46 0.45 0.49 0.31 0.12 0.13 0.21 0.24 0.16 0.13 0.12 0.12 0.12 0.12 0.11 0.10 0.09 0.09 0.10 0.10 0.12 0.13 0.16 0.21 0.26 0.33 0.39 0.43 0.46 0.44 0.43 0.43 0.46 0.45 0.45 0.45 0.49 0.54 0.55 0.56 0.55 0.54
0.43 0.47 0.47 0.40 0.31 0.20 0.15 0.18 0.20 0.18 0.17 0.13 0.13 0.12 0.11 0.11 0.10 0.10 0.11 0.10 0.10 0.11 0.12 0.15 0.17 0.21 0.24 0.32 0.35 0.40 0.44 0.49 0.47 0.46 0.47 0.48 0.49 0.50 0.50 0.52 0.56 0.59 0.58 0.56
0.38 0.36 0.45 0.40 0.24 0.19 0.20 0.19 0.21 0.19 0.16 0.12 0.12 0.12 0.13 0.12 0.13 0.12 0.12 0.11 0.12 0.14 0.15 0.17 0.21 0.24 0.26 0.32 0.37 0.48 0.50 0.49 0.51 0.52 0.53 0.51 0.50 0.50 0.51 0.52 0.53 0.53 0.54 0.53
0.45 0.50 0.50 0.44 0.32 0.28 0.27 0.24 0.22 0.21 0.15 0.12 0.10 0.11 0.13 0.14 0.14 0.15 0.15 0.13 0.13 0.15 0.17 0.20 0.24 0.27 0.28 0.33 0.39 0.48 0.49 0.50 0.53 0.57 0.57 0.54 0.50 0.47 0.48 0.47 0.48 0.50 0.50 0.54
0.43 0.53 0.58 0.53 0.37 0.36 0.31 0.23 0.20 0.20 0.17 0.13 0.10 0.10 0.11 0.12 0.13 0.15 0.14 0.13 0.12 0.13 0.15 0.19 0.21 0.24 0.26 0.30 0.33 0.40 0.45 0.46 0.50 0.54 0.55 0.52 0.54 0.51 0.47 0.46 0.49 0.56 0.57 0.62

GEFSCGP_prec_meanprecacc_306.txt.gz
Total_Precipitation_Accumulation
0.60 0.79 0.89 0.83 0.85 0.91 0.82 0.79 0.78 0.66 0.52 0.57 0.60 0.61 0.56 0.53 0.48 0.47 0.47 0.45 0.47 0.41 0.37 0.30 0.30 0.36 0.50 0.56 0.56 0.58 0.64 0.62 0.57 0.55 0.64 0.75 0.79 0.90 1.00 1.09 1.20 1.22 1.21 1.28
0.61 0.63 0.56 0.59 0.67 0.83 0.86 0.87 0.82 0.72 0.56 0.55 0.60 0.64 0.56 0.51 0.47 0.40 0.36 0.34 0.39 0.36 0.34 0.31 0.32 0.35 0.38 0.43 0.45 0.50 0.54 0.52 0.47 0.44 0.52 0.66 0.79 0.91 1.09 1.29 1.53 1.47 1.35 1.38
0.59 0.52 0.44 0.48 0.59 0.76 0.78 0.73 0.66 0.75 0.68 0.66 0.73 0.80 0.66 0.57 0.51 0.42 0.33 0.33 0.37 0.34 0.29 0.29 0.32 0.36 0.33 0.34 0.41 0.47 0.50 0.51 0.49 0.55 0.73 1.05 1.36 1.52 1.59 1.64 1.88 1.93 1.79 1.73
0.74 0.50 0.41 0.45 0.52 0.61 0.83 0.59 0.51 0.65 0.87 0.85 0.73 0.90 0.63 0.56 0.61 0.47 0.38 0.34 0.34 0.35 0.32 0.30 0.32 0.37 0.31 0.34 0.41 0.48 0.51 0.59 0.61 0.74 1.06 1.51 1.87 2.04 2.02 2.08 2.16 2.27 2.21 2.04
0.62 0.42 0.42 0.47 0.43 0.52 0.78 0.64 0.65 0.72 0.80 0.76 0.53 0.62 0.55 0.55 0.63 0.50 0.44 0.43 0.42 0.37 0.35 0.34 0.36 0.41 0.41 0.43 0.49 0.56 0.66 0.82 0.98 1.10 1.28 1.61 1.79 1.87 2.01 2.15 2.43 2.63 2.71 2.66
0.46 0.36 0.38 0.39 0.38 0.45 0.60 0.74 0.87 0.87 0.87 0.83 0.43 0.43 0.48 0.49 0.47 0.47 0.44 0.47 0.45 0.39 0.34 0.35 0.43 0.48 0.49 0.59 0.67 0.70 0.87 1.03 1.08 1.19 1.31 1.44 1.54 1.68 1.90 2.09 2.35 2.54 2.59 2.65
0.53 0.45 0.36 0.34 0.49 0.53 0.58 0.84 1.17 1.28 1.19 0.82 0.36 0.37 0.44 0.35 0.31 0.35 0.37 0.35 0.35 0.37 0.37 0.39 0.42 0.52 0.56 0.64 0.78 0.85 0.95 1.10 1.15 1.25 1.35 1.36 1.43 1.55 1.73 1.83 1.89 1.93 1.93 2.01
0.53 0.53 0.35 0.31 0.38 0.47 0.49 0.60 0.97 1.17 0.98 0.69 0.41 0.47 0.43 0.28 0.23 0.21 0.25 0.29 0.33 0.42 0.47 0.47 0.48 0.61 0.69 0.78 0.89 1.03 1.09 1.16 1.21 1.29 1.38 1.35 1.45 1.58 1.67 1.63 1.59 1.65 1.69 1.76
0.45 0.45 0.27 0.27 0.27 0.32 0.47 0.48 0.55 0.69 0.56 0.58 0.47 0.41 0.32 0.20 0.19 0.19 0.24 0.34 0.44 0.51 0.57 0.60 0.62 0.70 0.79 0.87 0.96 1.07 1.20 1.27 1.34 1.33 1.39 1.52 1.58 1.60 1.58 1.45 1.42 1.48 1.42 1.39
0.34 0.43 0.35 0.29 0.31 0.32 0.38 0.47 0.58 0.69 0.74 0.70 0.47 0.42 0.40 0.27 0.26 0.29 0.34 0.43 0.58 0.68 0.71 0.75 0.82 0.88 0.93 0.96 1.06 1.16 1.27 1.39 1.38 1.36 1.46 1.63 1.60 1.38 1.24 1.14 1.17 1.20 1.25 1.29
0.25 0.39 0.43 0.37 0.32 0.33 0.37 0.38 0.48 0.58 0.58 0.79 0.90 0.86 0.68 0.63 0.51 0.56 0.60 0.69 0.86 0.92 0.94 0.91 0.97 1.04 1.03 1.04 1.13 1.18 1.27 1.43 1.44 1.34 1.45 1.47 1.28 1.02 0.90 0.92 0.93 0.94 0.95 0.99
0.22 0.35 0.41 0.32 0.22 0.21 0.29 0.29 0.34 0.57 0.59 0.63 0.97 1.00 0.83 0.86 0.84 0.94 1.03 1.18 1.15 1.12 1.15 1.06 1.00 1.02 0.95 0.93 1.04 1.13 1.26 1.33 1.24 1.20 1.20 1.04 0.85 0.74 0.71 0.69 0.68 0.68 0.73 0.72
0.30 0.40 0.50 0.46 0.39 0.28 0.25 0.21 0.22 0.34 0.54 0.63 0.99 1.02 0.77 0.85 0.96 1.13 1.24 1.26 1.08 0.95 0.89 0.85 0.84 0.78 0.74 0.76 0.81 0.86 1.01 1.09 0.89 0.80 0.84 0.80 0.71 0.66 0.64 0.61 0.59 0.58 0.62 0.66
0.32 0.36 0.44 0.50 0.41 0.26 0.23 0.19 0.19 0.30 0.53 0.56 0.70 0.75 0.68 0.80 0.95 1.06 1.09 0.99 0.78 0.66 0.63 0.60 0.54 0.50 0.55 0.57 0.56 0.52 0.57 0.70 0.65 0.58 0.61 0.63 0.61 0.60 0.62 0.63 0.60 0.57 0.58 0.61
0.32 0.33 0.28 0.26 0.20 0.17 0.16 0.17 0.18 0.24 0.31 0.47 0.53 0.52 0.53 0.60 0.62 0.64 0.66 0.64 0.56 0.51 0.43 0.41 0.41 0.39 0.45 0.46 0.47 0.44 0.41 0.44 0.48 0.47 0.47 0.54 0.57 0.57 0.55 0.57 0.55 0.54 0.54 0.55
0.30 0.30 0.20 0.19 0.16 0.15 0.12 0.11 0.15 0.20 0.25 0.33 0.34 0.35 0.31 0.30 0.28 0.26 0.27 0.33 0.31 0.30 0.27 0.30 0.33 0.36 0.41 0.41 0.39 0.41 0.39 0.36 0.36 0.36 0.37 0.45 0.52 0.53 0.55 0.53 0.51 0.50 0.51 0.52
0.32 0.33 0.30 0.21 0.14 0.19 0.17 0.10 0.12 0.17 0.17 0.21 0.27 0.30 0.30 0.24 0.20 0.17 0.15 0.16 0.17 0.19 0.21 0.24 0.27 0.33 0.39 0.39 0.38 0.39 0.38 0.35 0.34 0.35 0.37 0.43 0.45 0.44 0.47 0.50 0.45 0.42 0.46 0.50
0.27 0.33 0.41 0.31 0.28 0.31 0.16 0.08 0.08 0.10 0.12 0.15 0.18 0.19 0.22 0.19 0.19 0.16 0.14 0.14 0.15 0.16 0.18 0.21 0.24 0.29 0.37 0.38 0.39 0.39 0.38 0.36 0.34 0.34 0.36 0.41 0.42 0.42 0.40 0.42 0.39 0.39 0.43 0.48
0.22 0.33 0.50 0.45 0.37 0.21 0.12 0.09 0.09 0.09 0.11 0.13 0.12 0.11 0.11 0.12 0.16 0.15 0.12 0.12 0.12 0.13 0.14 0.17 0.22 0.30 0.36 0.39 0.44 0.45 0.40 0.38 0.37 0.35 0.33 0.35 0.38 0.40 0.40 0.36 0.35 0.37 0.42 0.46
0.27 0.33 0.52 0.52 0.48 0.30 0.14 0.08 0.08 0.11 0.18 0.16 0.14 0.12 0.12 0.14 0.18 0.16 0.13 0.11 0.10 0.10 0.11 0.14 0.18 0.27 0.34 0.40 0.43 0.46 0.46 0.39 0.35 0.35 0.35 0.37 0.37 0.35 0.37 0.37 0.37 0.38 0.44 0.49
0.38 0.43 0.48 0.48 0.47 0.25 0.10 0.08 0.11 0.23 0.24 0.16 0.14 0.13 0.14 0.14 0.14 0.12 0.09 0.08 0.09 0.10 0.11 0.12 0.17 0.25 0.30 0.37 0.41 0.47 0.48 0.37 0.34 0.40 0.44 0.44 0.40 0.41 0.46 0.48 0.46 0.46 0.46 0.49
0.47 0.51 0.47 0.47 0.51 0.32 0.12 0.14 0.21 0.24 0.17 0.13 0.13 0.12 0.12 0.12 0.11 0.10 0.09 0.09 0.10 0.11 0.12 0.13 0.16 0.21 0.26 0.33 0.39 0.43 0.46 0.44 0.43 0.43 0.46 0.46 0.45 0.46 0.50 0.55 0.56 0.57 0.56 0.56
0.44 0.49 0.51 0.44 0.34 0.21 0.16 0.19 0.21 0.19 0.17 0.14 0.13 0.13 0.12 0.11 0.11 0.10 0.11 0.10 0.11 0.11 0.12 0.15 0.17 0.21 0.24 0.32 0.35 0.40 0.44 0.49 0.47 0.46 0.47 0.48 0.49 0.50 0.50 0.53 0.57 0.61 0.60 0.59
0.38 0.38 0.48 0.43 0.26 0.21 0.21 0.20 0.21 0.20 0.17 0.13 0.12 0.13 0.14 0.13 0.13 0.12 0.12 0.11 0.13 0.14 0.15 0.18 0.21 0.24 0.26 0.33 0.38 0.48 0.51 0.49 0.51 0.52 0.53 0.51 0.50 0.50 0.51 0.53 0.54 0.55 0.56 0.55
0.46 0.51 0.53 0.46 0.33 0.29 0.28 0.25 0.23 0.22 0.17 0.13 0.11 0.11 0.14 0.15 0.14 0.15 0.15 0.13 0.13 0.15 0.17 0.20 0.24 0.27 0.28 0.34 0.39 0.49 0.50 0.50 0.54 0.58 0.57 0.54 0.50 0.47 0.48 0.48 0.49 0.51 0.51 0.57
0.44 0.54 0.60 0.55 0.38 0.37 0.32 0.24 0.22 0.22 0.19 0.14 0.11 0.11 0.11 0.13 0.14 0.15 0.14 0.13 0.12 0.13 0.15 0.19 0.21 0.24 0.26 0.31 0.33 0.40 0.45 0.46 0.50 0.55 0.55 0.53 0.55 0.52 0.48 0.47 0.50 0.57 0.58 0.64